Time,TemperatureF,DewpointF,PressureIn,WindDirection,WindDirectionDegrees,WindSpeedMPH,WindSpeedGustMPH,Humidity,HourlyPrecipIn,Conditions,Clouds,dailyrainin,SoftwareType,DateUTC
2013-07-10 00:00:00,68.0,39.2,29.92,WSW,248,12.5,13.0,35,0.00,,,0.00,WUHU216HW,2013-07-10 06:00:00,
2013-07-10 00:01:00,68.0,39.2,29.92,West,270,13.4,14.5,35,0.00,,,0.00,WUHU216HW,2013-07-10 06:01:00,
2013-07-10 00:02:00,68.0,39.2,29.92,West,270,12.1,14.5,35,0.00,,,0.00,WUHU216HW,2013-07-10 06:02:00,
2013-07-10 00:03:00,68.0,39.2,29.92,West,270,12.8,14.5,35,0.00,,,0.00,WUHU216HW,2013-07-10 06:03:00,
2013-07-10 00:04:00,68.2,39.3,29.92,West,270,11.4,14.5,35,0.00,,,0.00,WUHU216HW,2013-07-10 06:04:00,
2013-07-10 00:05:00,68.2,38.6,29.92,West,270,11.4,14.5,34,0.00,,,0.00,WUHU216HW,2013-07-10 06:05:00,
2013-07-10 00:06:00,68.2,39.3,29.92,WSW,248,11.4,14.5,35,0.00,,,0.00,WUHU216HW,2013-07-10 06:06:00,
2013-07-10 00:08:00,68.2,39.3,29.92,West,270,12.8,14.5,35,0.00,,,0.00,WUHU216HW,2013-07-10 06:08:00,
2013-07-10 00:09:00,68.0,39.2,29.92,West,270,11.4,14.5,35,0.00,,,0.00,WUHU216HW,2013-07-10 06:09:00,
2013-07-10 00:10:00,68.0,39.2,29.92,West,270,10.5,14.5,35,0.00,,,0.00,WUHU216HW,2013-07-10 06:10:00,
2013-07-10 00:12:00,67.9,39.0,29.92,West,270,11.2,13.6,35,0.00,,,0.00,WUHU216HW,2013-07-10 06:12:00,
2013-07-10 00:13:00,67.9,39.0,29.92,West,270,10.5,13.6,35,0.00,,,0.00,WUHU216HW,2013-07-10 06:13:00,
2013-07-10 00:14:00,67.7,38.9,29.92,West,270,12.8,13.6,35,0.00,,,0.00,WUHU216HW,2013-07-10 06:14:00,
2013-07-10 00:15:00,67.7,38.9,29.92,West,270,13.4,13.6,35,0.00,,,0.00,WUHU216HW,2013-07-10 06:15:00,
2013-07-10 00:17:00,67.7,38.9,29.92,West,270,12.1,13.4,35,0.00,,,0.00,WUHU216HW,2013-07-10 06:17:00,
2013-07-10 00:18:00,67.9,39.0,29.92,West,270,12.1,13.4,35,0.00,,,0.00,WUHU216HW,2013-07-10 06:18:00,
2013-07-10 00:19:00,67.9,39.0,29.92,West,270,11.9,14.1,35,0.00,,,0.00,WUHU216HW,2013-07-10 06:19:00,
2013-07-10 00:20:00,67.7,38.9,29.92,West,270,11.4,14.1,35,0.00,,,0.00,WUHU216HW,2013-07-10 06:20:00,
2013-07-10 00:21:00,67.7,38.9,29.92,West,270,11.6,14.1,35,0.00,,,0.00,WUHU216HW,2013-07-10 06:21:00,
2013-07-10 00:22:00,67.7,39.6,29.92,WNW,293,10.5,14.1,36,0.00,,,0.00,WUHU216HW,2013-07-10 06:22:00,
2013-07-10 00:23:00,67.5,38.7,29.92,WSW,248,12.3,14.1,35,0.00,,,0.00,WUHU216HW,2013-07-10 06:23:00,
2013-07-10 00:24:00,67.5,38.7,29.92,West,270,13.2,14.1,35,0.00,,,0.00,WUHU216HW,2013-07-10 06:24:00,
2013-07-10 00:25:00,67.7,38.9,29.92,West,270,11.6,14.1,35,0.00,,,0.00,WUHU216HW,2013-07-10 06:25:00,
2013-07-10 00:26:00,67.7,38.9,29.92,WSW,248,12.8,14.1,35,0.00,,,0.00,WUHU216HW,2013-07-10 06:26:00,
2013-07-10 00:27:00,67.7,38.9,29.92,West,270,11.0,14.1,35,0.00,,,0.00,WUHU216HW,2013-07-10 06:27:00,
2013-07-10 00:28:00,67.7,38.9,29.92,West,270,11.9,14.1,35,0.00,,,0.00,WUHU216HW,2013-07-10 06:28:00,
2013-07-10 00:29:00,67.7,38.9,29.92,West,270,13.2,13.6,35,0.00,,,0.00,WUHU216HW,2013-07-10 06:29:00,
2013-07-10 00:30:00,67.7,38.9,29.92,West,270,14.3,14.3,35,0.00,,,0.00,WUHU216HW,2013-07-10 06:30:00,
2013-07-10 00:31:00,67.7,38.9,29.92,West,270,14.1,14.3,35,0.00,,,0.00,WUHU216HW,2013-07-10 06:31:00,
2013-07-10 00:32:00,67.7,38.9,29.92,WSW,248,11.9,14.3,35,0.00,,,0.00,WUHU216HW,2013-07-10 06:32:00,
2013-07-10 00:33:00,67.7,38.9,29.92,West,270,10.5,14.3,35,0.00,,,0.00,WUHU216HW,2013-07-10 06:33:00,
2013-07-10 00:34:00,67.7,38.9,29.92,West,270,13.0,14.3,35,0.00,,,0.00,WUHU216HW,2013-07-10 06:34:00,
2013-07-10 00:35:00,67.7,38.9,29.92,WSW,248,13.6,14.3,35,0.00,,,0.00,WUHU216HW,2013-07-10 06:35:00,
2013-07-10 00:36:00,67.7,38.9,29.92,WNW,293,13.4,14.3,35,0.00,,,0.00,WUHU216HW,2013-07-10 06:36:00,
2013-07-10 00:38:00,67.7,38.9,29.92,West,270,13.4,14.3,35,0.00,,,0.00,WUHU216HW,2013-07-10 06:38:00,
2013-07-10 00:40:00,67.7,39.6,29.92,West,270,12.5,14.3,36,0.00,,,0.00,WUHU216HW,2013-07-10 06:40:00,
2013-07-10 00:41:00,67.5,39.4,29.92,West,270,12.1,14.3,36,0.00,,,0.00,WUHU216HW,2013-07-10 06:41:00,
2013-07-10 00:43:00,67.5,39.4,29.92,West,270,14.3,15.4,36,0.00,,,0.00,WUHU216HW,2013-07-10 06:43:00,
2013-07-10 00:45:00,67.5,39.4,29.92,West,270,14.5,15.4,36,0.00,,,0.00,WUHU216HW,2013-07-10 06:45:00,
2013-07-10 00:46:00,67.5,39.4,29.92,West,270,12.8,15.4,36,0.00,,,0.00,WUHU216HW,2013-07-10 06:46:00,
2013-07-10 00:48:00,67.3,40.0,29.92,West,270,12.1,15.4,37,0.00,,,0.00,WUHU216HW,2013-07-10 06:48:00,
2013-07-10 00:49:00,67.3,40.0,29.92,West,270,12.8,15.4,37,0.00,,,0.00,WUHU216HW,2013-07-10 06:49:00,
2013-07-10 00:51:00,67.3,39.2,29.92,West,270,12.8,15.4,36,0.00,,,0.00,WUHU216HW,2013-07-10 06:51:00,
2013-07-10 00:53:00,67.3,39.2,29.92,West,270,11.2,14.8,36,0.00,,,0.00,WUHU216HW,2013-07-10 06:53:00,
2013-07-10 00:54:00,67.3,39.2,29.92,West,270,10.1,14.8,36,0.00,,,0.00,WUHU216HW,2013-07-10 06:54:00,
2013-07-10 00:56:00,67.3,39.2,29.92,WSW,248,11.4,14.8,36,0.00,,,0.00,WUHU216HW,2013-07-10 06:56:00,
2013-07-10 00:57:00,67.3,39.2,29.92,WSW,248,12.5,14.8,36,0.00,,,0.00,WUHU216HW,2013-07-10 06:57:00,
2013-07-10 00:58:00,67.3,40.0,29.92,West,270,11.4,14.8,37,0.00,,,0.00,WUHU216HW,2013-07-10 06:58:00,
2013-07-10 00:59:00,67.3,40.0,29.92,WNW,293,13.4,14.8,37,0.00,,,0.00,WUHU216HW,2013-07-10 06:59:00,
2013-07-10 01:01:00,67.1,39.9,29.92,West,270,13.6,15.0,37,0.00,,,0.00,WUHU216HW,2013-07-10 07:01:00,
2013-07-10 01:02:00,67.1,39.9,29.92,West,270,11.2,15.0,37,0.00,,,0.00,WUHU216HW,2013-07-10 07:02:00,
2013-07-10 01:04:00,67.1,39.9,29.92,West,270,10.5,15.0,37,0.00,,,0.00,WUHU216HW,2013-07-10 07:04:00,
2013-07-10 01:06:00,67.0,39.7,29.92,West,270,12.5,15.0,37,0.00,,,0.00,WUHU216HW,2013-07-10 07:06:00,
2013-07-10 01:07:00,67.0,39.0,29.92,West,270,10.5,15.0,36,0.00,,,0.00,WUHU216HW,2013-07-10 07:07:00,
2013-07-10 01:09:00,67.0,39.0,29.92,West,270,11.2,15.0,36,0.00,,,0.00,WUHU216HW,2013-07-10 07:09:00,
2013-07-10 01:10:00,67.0,39.7,29.92,West,270,11.4,15.0,37,0.00,,,0.00,WUHU216HW,2013-07-10 07:10:00,
2013-07-10 01:11:00,67.0,39.0,29.92,West,270,12.5,13.0,36,0.00,,,0.00,WUHU216HW,2013-07-10 07:11:00,
2013-07-10 01:12:00,67.0,39.0,29.92,West,270,9.8,13.0,36,0.00,,,0.00,WUHU216HW,2013-07-10 07:12:00,
2013-07-10 01:14:00,67.0,39.0,29.92,WSW,248,9.8,13.0,36,0.00,,,0.00,WUHU216HW,2013-07-10 07:14:00,
2013-07-10 01:15:00,66.8,38.8,29.92,WSW,248,11.6,13.0,36,0.00,,,0.00,WUHU216HW,2013-07-10 07:15:00,
2013-07-10 01:16:00,66.8,38.8,29.92,West,270,8.1,13.0,36,0.00,,,0.00,WUHU216HW,2013-07-10 07:16:00,
2013-07-10 01:17:00,66.8,38.8,29.92,West,270,8.7,13.0,36,0.00,,,0.00,WUHU216HW,2013-07-10 07:17:00,
2013-07-10 01:18:00,67.0,39.0,29.92,West,270,9.6,13.0,36,0.00,,,0.00,WUHU216HW,2013-07-10 07:18:00,
2013-07-10 01:19:00,67.0,39.0,29.92,West,270,7.6,12.5,36,0.00,,,0.00,WUHU216HW,2013-07-10 07:19:00,
2013-07-10 01:20:00,67.0,39.0,29.92,West,270,8.5,12.5,36,0.00,,,0.00,WUHU216HW,2013-07-10 07:20:00,
2013-07-10 01:21:00,66.8,38.8,29.92,West,270,5.6,12.5,36,0.00,,,0.00,WUHU216HW,2013-07-10 07:21:00,
2013-07-10 01:22:00,66.8,38.8,29.92,WNW,293,6.0,11.9,36,0.00,,,0.00,WUHU216HW,2013-07-10 07:22:00,
2013-07-10 01:24:00,66.8,38.8,29.93,WNW,293,6.9,11.9,36,0.00,,,0.00,WUHU216HW,2013-07-10 07:24:00,
2013-07-10 01:25:00,66.6,38.6,29.93,West,270,6.9,11.9,36,0.00,,,0.00,WUHU216HW,2013-07-10 07:25:00,
2013-07-10 01:27:00,66.6,38.6,29.93,West,270,6.3,11.9,36,0.00,,,0.00,WUHU216HW,2013-07-10 07:27:00,
2013-07-10 01:29:00,66.6,38.6,29.93,WNW,293,8.1,9.8,36,0.00,,,0.00,WUHU216HW,2013-07-10 07:29:00,
2013-07-10 01:31:00,66.6,38.6,29.93,NW,315,6.9,8.5,36,0.00,,,0.00,WUHU216HW,2013-07-10 07:31:00,
2013-07-10 01:32:00,66.6,38.6,29.93,West,270,6.5,8.5,36,0.00,,,0.00,WUHU216HW,2013-07-10 07:32:00,
2013-07-10 01:34:00,66.6,38.6,29.93,West,270,4.7,8.5,36,0.00,,,0.00,WUHU216HW,2013-07-10 07:34:00,
2013-07-10 01:36:00,66.8,38.8,29.93,WNW,293,5.4,8.1,36,0.00,,,0.00,WUHU216HW,2013-07-10 07:36:00,
2013-07-10 01:37:00,66.8,38.8,29.93,SSW,203,1.6,8.1,36,0.00,,,0.00,WUHU216HW,2013-07-10 07:37:00,
2013-07-10 01:39:00,66.8,38.8,29.93,SSW,203,4.5,7.4,36,0.00,,,0.00,WUHU216HW,2013-07-10 07:39:00,
2013-07-10 01:41:00,66.6,38.6,29.93,WSW,248,2.7,6.9,36,0.00,,,0.00,WUHU216HW,2013-07-10 07:41:00,
2013-07-10 01:42:00,66.6,39.3,29.93,WSW,248,5.1,6.5,37,0.00,,,0.00,WUHU216HW,2013-07-10 07:42:00,
2013-07-10 01:44:00,66.2,39.1,29.93,SW,225,6.3,9.2,37,0.00,,,0.00,WUHU216HW,2013-07-10 07:44:00,
2013-07-10 01:45:00,66.2,39.1,29.93,SW,225,6.3,9.2,37,0.00,,,0.00,WUHU216HW,2013-07-10 07:45:00,
2013-07-10 01:46:00,66.1,39.6,29.93,WSW,248,4.0,9.2,38,0.00,,,0.00,WUHU216HW,2013-07-10 07:46:00,
2013-07-10 01:47:00,65.9,39.4,29.93,SW,225,1.8,9.2,38,0.00,,,0.00,WUHU216HW,2013-07-10 07:47:00,
2013-07-10 01:49:00,65.9,39.4,29.93,WSW,248,2.5,9.2,38,0.00,,,0.00,WUHU216HW,2013-07-10 07:49:00,
2013-07-10 01:50:00,65.9,39.4,29.93,WSW,248,3.1,9.2,38,0.00,,,0.00,WUHU216HW,2013-07-10 07:50:00,
2013-07-10 01:52:00,65.9,40.1,29.93,WSW,248,3.4,9.2,39,0.00,,,0.00,WUHU216HW,2013-07-10 07:52:00,
2013-07-10 01:53:00,65.7,40.1,29.93,WSW,248,2.5,7.4,39,0.00,,,0.00,WUHU216HW,2013-07-10 07:53:00,
2013-07-10 01:55:00,65.7,40.1,29.93,SW,225,2.7,5.8,39,0.00,,,0.00,WUHU216HW,2013-07-10 07:55:00,
2013-07-10 01:57:00,65.7,40.1,29.93,SW,225,2.0,4.0,39,0.00,,,0.00,WUHU216HW,2013-07-10 07:57:00,
2013-07-10 01:59:00,65.5,39.9,29.93,SW,225,1.6,4.0,39,0.00,,,0.00,WUHU216HW,2013-07-10 07:59:00,
2013-07-10 02:00:00,65.5,39.9,29.93,SW,225,1.3,4.0,39,0.00,,,0.00,WUHU216HW,2013-07-10 08:00:00,
2013-07-10 02:02:00,65.3,40.4,29.93,West,270,3.1,4.0,40,0.00,,,0.00,WUHU216HW,2013-07-10 08:02:00,
2013-07-10 02:04:00,65.0,40.1,29.93,WSW,248,2.2,3.4,40,0.00,,,0.00,WUHU216HW,2013-07-10 08:04:00,
2013-07-10 02:05:00,64.8,40.0,29.93,WSW,248,2.2,3.4,40,0.00,,,0.00,WUHU216HW,2013-07-10 08:05:00,
2013-07-10 02:07:00,64.4,39.6,29.93,SW,225,2.2,3.4,40,0.00,,,0.00,WUHU216HW,2013-07-10 08:07:00,
2013-07-10 02:08:00,64.4,39.6,29.93,SW,225,2.2,3.4,40,0.00,,,0.00,WUHU216HW,2013-07-10 08:08:00,
2013-07-10 02:09:00,64.4,39.6,29.93,SW,225,2.2,3.4,40,0.00,,,0.00,WUHU216HW,2013-07-10 08:09:00,
2013-07-10 02:10:00,64.4,39.6,29.93,SW,225,2.2,3.4,40,0.00,,,0.00,WUHU216HW,2013-07-10 08:10:00,
2013-07-10 02:12:00,63.9,39.7,29.93,WSW,248,3.1,3.4,41,0.00,,,0.00,WUHU216HW,2013-07-10 08:12:00,
2013-07-10 02:13:00,63.7,39.5,29.93,WSW,248,4.3,4.3,41,0.00,,,0.00,WUHU216HW,2013-07-10 08:13:00,
2013-07-10 02:14:00,63.7,39.5,29.93,WSW,248,4.3,4.5,41,0.00,,,0.00,WUHU216HW,2013-07-10 08:14:00,
2013-07-10 02:15:00,63.7,39.5,29.93,WSW,248,2.9,4.5,41,0.00,,,0.00,WUHU216HW,2013-07-10 08:15:00,
2013-07-10 02:16:00,63.7,39.5,29.93,WSW,248,4.0,4.5,41,0.00,,,0.00,WUHU216HW,2013-07-10 08:16:00,
2013-07-10 02:17:00,63.5,39.3,29.93,WSW,248,4.3,4.5,41,0.00,,,0.00,WUHU216HW,2013-07-10 08:17:00,
2013-07-10 02:18:00,63.5,40.0,29.93,WSW,248,4.7,4.7,42,0.00,,,0.00,WUHU216HW,2013-07-10 08:18:00,
2013-07-10 02:19:00,63.4,39.8,29.93,WSW,248,5.6,5.6,42,0.00,,,0.00,WUHU216HW,2013-07-10 08:19:00,
2013-07-10 02:20:00,63.4,39.3,29.93,WSW,248,4.9,5.6,41,0.00,,,0.00,WUHU216HW,2013-07-10 08:20:00,
2013-07-10 02:21:00,63.4,39.3,29.93,WSW,248,5.4,5.6,41,0.00,,,0.00,WUHU216HW,2013-07-10 08:21:00,
2013-07-10 02:23:00,63.2,39.1,29.93,WSW,248,5.4,5.6,41,0.00,,,0.00,WUHU216HW,2013-07-10 08:23:00,
2013-07-10 02:24:00,63.2,39.6,29.93,WSW,248,4.3,5.8,42,0.00,,,0.00,WUHU216HW,2013-07-10 08:24:00,
2013-07-10 02:25:00,63.2,39.6,29.93,SW,225,4.9,5.8,42,0.00,,,0.00,WUHU216HW,2013-07-10 08:25:00,
2013-07-10 02:27:00,63.0,39.4,29.93,SW,225,3.4,5.8,42,0.00,,,0.00,WUHU216HW,2013-07-10 08:27:00,
2013-07-10 02:28:00,63.0,39.4,29.93,SSW,203,2.5,5.8,42,0.00,,,0.00,WUHU216HW,2013-07-10 08:28:00,
2013-07-10 02:29:00,63.0,39.4,29.93,SSW,203,1.8,5.8,42,0.00,,,0.00,WUHU216HW,2013-07-10 08:29:00,
2013-07-10 02:30:00,63.0,39.4,29.93,South,180,1.8,5.8,42,0.00,,,0.00,WUHU216HW,2013-07-10 08:30:00,
2013-07-10 02:32:00,63.0,39.4,29.93,SSE,158,2.7,5.8,42,0.00,,,0.00,WUHU216HW,2013-07-10 08:32:00,
2013-07-10 02:33:00,63.0,39.4,29.93,South,180,1.8,5.8,42,0.00,,,0.00,WUHU216HW,2013-07-10 08:33:00,
2013-07-10 02:34:00,63.0,39.4,29.93,SSW,203,1.8,5.1,42,0.00,,,0.00,WUHU216HW,2013-07-10 08:34:00,
2013-07-10 02:35:00,62.8,39.3,29.93,South,180,1.3,4.9,42,0.00,,,0.00,WUHU216HW,2013-07-10 08:35:00,
2013-07-10 02:36:00,62.8,39.3,29.93,SSE,158,1.6,3.8,42,0.00,,,0.00,WUHU216HW,2013-07-10 08:36:00,
2013-07-10 02:37:00,62.8,39.3,29.93,ESE,113,2.5,2.7,42,0.00,,,0.00,WUHU216HW,2013-07-10 08:37:00,
2013-07-10 02:38:00,62.8,39.3,29.93,SSE,158,2.7,2.7,42,0.00,,,0.00,WUHU216HW,2013-07-10 08:38:00,
2013-07-10 02:39:00,62.6,39.2,29.93,SSE,158,1.8,3.4,42,0.00,,,0.00,WUHU216HW,2013-07-10 08:39:00,
2013-07-10 02:40:00,62.6,39.2,29.93,SSE,158,3.1,3.4,42,0.00,,,0.00,WUHU216HW,2013-07-10 08:40:00,
2013-07-10 02:41:00,62.6,39.2,29.93,SSE,158,2.9,3.4,42,0.00,,,0.00,WUHU216HW,2013-07-10 08:41:00,
2013-07-10 02:42:00,62.5,39.0,29.93,SSW,203,4.3,4.3,42,0.00,,,0.00,WUHU216HW,2013-07-10 08:42:00,
2013-07-10 02:43:00,62.5,39.0,29.92,SSW,203,4.3,4.3,42,0.00,,,0.00,WUHU216HW,2013-07-10 08:43:00,
2013-07-10 02:44:00,62.5,39.5,29.93,SSW,203,3.8,4.9,43,0.00,,,0.00,WUHU216HW,2013-07-10 08:44:00,
2013-07-10 02:45:00,62.5,39.5,29.92,SSW,203,3.6,4.9,43,0.00,,,0.00,WUHU216HW,2013-07-10 08:45:00,
2013-07-10 02:46:00,62.3,39.4,29.93,South,180,4.7,5.4,43,0.00,,,0.00,WUHU216HW,2013-07-10 08:46:00,
2013-07-10 02:47:00,62.3,39.4,29.93,SSE,158,3.1,6.0,43,0.00,,,0.00,WUHU216HW,2013-07-10 08:47:00,
2013-07-10 02:48:00,62.3,39.4,29.93,South,180,4.0,6.0,43,0.00,,,0.00,WUHU216HW,2013-07-10 08:48:00,
2013-07-10 02:49:00,62.3,39.4,29.93,SW,225,2.7,6.0,43,0.00,,,0.00,WUHU216HW,2013-07-10 08:49:00,
2013-07-10 02:51:00,62.3,39.4,29.93,SSW,203,2.7,6.0,43,0.00,,,0.00,WUHU216HW,2013-07-10 08:51:00,
2013-07-10 02:53:00,62.3,39.4,29.92,WSW,248,3.1,6.0,43,0.00,,,0.00,WUHU216HW,2013-07-10 08:53:00,
2013-07-10 02:54:00,62.3,39.4,29.93,SSW,203,1.8,6.0,43,0.00,,,0.00,WUHU216HW,2013-07-10 08:54:00,
2013-07-10 02:56:00,62.3,39.4,29.92,SW,225,2.5,6.0,43,0.00,,,0.00,WUHU216HW,2013-07-10 08:56:00,
2013-07-10 02:57:00,62.3,39.4,29.93,WSW,248,3.4,6.0,43,0.00,,,0.00,WUHU216HW,2013-07-10 08:57:00,
2013-07-10 02:58:00,62.3,38.8,29.92,WSW,248,1.8,4.5,42,0.00,,,0.00,WUHU216HW,2013-07-10 08:58:00,
2013-07-10 03:00:00,62.3,38.8,29.92,WSW,248,3.8,4.3,42,0.00,,,0.00,WUHU216HW,2013-07-10 09:00:00,
2013-07-10 03:01:00,62.3,38.8,29.92,West,270,3.4,4.3,42,0.00,,,0.00,WUHU216HW,2013-07-10 09:01:00,
2013-07-10 03:02:00,62.3,38.8,29.93,WSW,248,3.4,4.3,42,0.00,,,0.00,WUHU216HW,2013-07-10 09:02:00,
2013-07-10 03:03:00,62.3,38.8,29.92,WSW,248,3.8,4.3,42,0.00,,,0.00,WUHU216HW,2013-07-10 09:03:00,
2013-07-10 03:05:00,62.3,38.8,29.92,WSW,248,2.5,4.3,42,0.00,,,0.00,WUHU216HW,2013-07-10 09:05:00,
2013-07-10 03:06:00,62.3,38.8,29.92,SSW,203,2.7,4.3,42,0.00,,,0.00,WUHU216HW,2013-07-10 09:06:00,
2013-07-10 03:07:00,62.3,38.8,29.92,SW,225,2.9,4.0,42,0.00,,,0.00,WUHU216HW,2013-07-10 09:07:00,
2013-07-10 03:08:00,62.3,38.8,29.92,WSW,248,3.1,4.0,42,0.00,,,0.00,WUHU216HW,2013-07-10 09:08:00,
2013-07-10 03:09:00,62.3,38.8,29.92,WSW,248,3.1,4.0,42,0.00,,,0.00,WUHU216HW,2013-07-10 09:09:00,
2013-07-10 03:10:00,62.3,38.8,29.92,SW,225,2.5,4.0,42,0.00,,,0.00,WUHU216HW,2013-07-10 09:10:00,
2013-07-10 03:11:00,62.3,38.8,29.92,SW,225,3.4,3.8,42,0.00,,,0.00,WUHU216HW,2013-07-10 09:11:00,
2013-07-10 03:12:00,62.3,39.4,29.92,SSW,203,3.1,3.8,43,0.00,,,0.00,WUHU216HW,2013-07-10 09:12:00,
2013-07-10 03:13:00,62.3,38.8,29.92,SW,225,2.5,3.4,42,0.00,,,0.00,WUHU216HW,2013-07-10 09:13:00,
2013-07-10 03:14:00,62.3,39.4,29.92,SSW,203,2.5,3.4,43,0.00,,,0.00,WUHU216HW,2013-07-10 09:14:00,
2013-07-10 03:15:00,62.3,39.4,29.92,SW,225,3.1,3.4,43,0.00,,,0.00,WUHU216HW,2013-07-10 09:15:00,
2013-07-10 03:17:00,62.3,39.4,29.92,WSW,248,3.6,3.6,43,0.00,,,0.00,WUHU216HW,2013-07-10 09:17:00,
2013-07-10 03:18:00,62.3,39.4,29.92,WSW,248,4.5,4.7,43,0.00,,,0.00,WUHU216HW,2013-07-10 09:18:00,
2013-07-10 03:20:00,62.1,39.3,29.92,WSW,248,4.0,4.7,43,0.00,,,0.00,WUHU216HW,2013-07-10 09:20:00,
2013-07-10 03:21:00,62.1,39.3,29.92,WSW,248,4.3,4.7,43,0.00,,,0.00,WUHU216HW,2013-07-10 09:21:00,
2013-07-10 03:22:00,62.1,39.3,29.92,WSW,248,4.5,4.7,43,0.00,,,0.00,WUHU216HW,2013-07-10 09:22:00,
2013-07-10 03:23:00,61.9,39.1,29.92,SW,225,3.8,4.7,43,0.00,,,0.00,WUHU216HW,2013-07-10 09:23:00,
2013-07-10 03:25:00,61.9,39.1,29.92,SSW,203,2.7,4.7,43,0.00,,,0.00,WUHU216HW,2013-07-10 09:25:00,
2013-07-10 03:26:00,61.9,39.1,29.92,SSW,203,2.5,4.7,43,0.00,,,0.00,WUHU216HW,2013-07-10 09:26:00,
2013-07-10 03:27:00,61.9,39.1,29.92,SW,225,2.5,4.7,43,0.00,,,0.00,WUHU216HW,2013-07-10 09:27:00,
2013-07-10 03:28:00,61.9,39.1,29.92,SW,225,2.5,4.5,43,0.00,,,0.00,WUHU216HW,2013-07-10 09:28:00,
2013-07-10 03:30:00,61.7,38.9,29.92,SSE,158,2.2,4.5,43,0.00,,,0.00,WUHU216HW,2013-07-10 09:30:00,
2013-07-10 03:31:00,61.7,38.9,29.92,SSE,158,1.8,4.5,43,0.00,,,0.00,WUHU216HW,2013-07-10 09:31:00,
2013-07-10 03:32:00,61.7,38.9,29.92,SE,135,2.7,4.5,43,0.00,,,0.00,WUHU216HW,2013-07-10 09:32:00,
2013-07-10 03:33:00,61.6,38.7,29.92,SE,135,2.7,3.4,43,0.00,,,0.00,WUHU216HW,2013-07-10 09:33:00,
2013-07-10 03:34:00,61.6,38.7,29.92,SE,135,1.6,3.4,43,0.00,,,0.00,WUHU216HW,2013-07-10 09:34:00,
2013-07-10 03:35:00,61.6,38.7,29.92,SE,135,2.5,3.4,43,0.00,,,0.00,WUHU216HW,2013-07-10 09:35:00,
2013-07-10 03:36:00,61.6,38.7,29.92,SSW,203,1.1,3.4,43,0.00,,,0.00,WUHU216HW,2013-07-10 09:36:00,
2013-07-10 03:37:00,61.4,38.6,29.92,SSW,203,0.7,3.4,43,0.00,,,0.00,WUHU216HW,2013-07-10 09:37:00,
2013-07-10 03:38:00,61.2,38.4,29.92,SSE,158,1.1,3.4,43,0.00,,,0.00,WUHU216HW,2013-07-10 09:38:00,
2013-07-10 03:39:00,61.2,38.4,29.92,SSE,158,0.7,3.4,43,0.00,,,0.00,WUHU216HW,2013-07-10 09:39:00,
2013-07-10 03:40:00,61.0,38.3,29.92,SE,135,2.0,3.4,43,0.00,,,0.00,WUHU216HW,2013-07-10 09:40:00,
2013-07-10 03:41:00,60.8,38.7,29.92,SE,135,2.2,3.4,44,0.00,,,0.00,WUHU216HW,2013-07-10 09:41:00,
2013-07-10 03:42:00,60.8,38.7,29.92,SE,135,1.8,3.4,44,0.00,,,0.00,WUHU216HW,2013-07-10 09:42:00,
2013-07-10 03:43:00,60.8,38.7,29.92,SE,135,1.6,2.5,44,0.00,,,0.00,WUHU216HW,2013-07-10 09:43:00,
2013-07-10 03:44:00,60.7,38.5,29.92,SE,135,1.1,2.5,44,0.00,,,0.00,WUHU216HW,2013-07-10 09:44:00,
2013-07-10 03:46:00,60.5,38.9,29.92,SE,135,0.0,2.2,45,0.00,,,0.00,WUHU216HW,2013-07-10 09:46:00,
2013-07-10 03:47:00,60.5,38.9,29.92,SE,135,0.0,2.2,45,0.00,,,0.00,WUHU216HW,2013-07-10 09:47:00,
2013-07-10 03:48:00,60.3,38.8,29.92,SE,135,0.0,2.2,45,0.00,,,0.00,WUHU216HW,2013-07-10 09:48:00,
2013-07-10 03:50:00,60.1,38.6,29.92,SSE,158,0.4,2.2,45,0.00,,,0.00,WUHU216HW,2013-07-10 09:50:00,
2013-07-10 03:51:00,60.1,38.6,29.92,SSW,203,1.1,2.2,45,0.00,,,0.00,WUHU216HW,2013-07-10 09:51:00,
2013-07-10 03:52:00,60.1,39.2,29.92,SSW,203,1.1,2.2,46,0.00,,,0.00,WUHU216HW,2013-07-10 09:52:00,
2013-07-10 03:54:00,60.1,39.2,29.92,SSW,203,1.1,1.3,46,0.00,,,0.00,WUHU216HW,2013-07-10 09:54:00,
2013-07-10 03:55:00,60.1,39.2,29.92,SSW,203,1.1,1.1,46,0.00,,,0.00,WUHU216HW,2013-07-10 09:55:00,
2013-07-10 03:57:00,59.6,38.7,29.92,SW,225,2.7,2.7,46,0.00,,,0.00,WUHU216HW,2013-07-10 09:57:00,
2013-07-10 03:59:00,59.6,39.2,29.92,SW,225,3.1,3.4,47,0.00,,,0.00,WUHU216HW,2013-07-10 09:59:00,
2013-07-10 04:00:00,59.4,39.1,29.92,WSW,248,3.4,3.8,47,0.00,,,0.00,WUHU216HW,2013-07-10 10:00:00,
2013-07-10 04:02:00,59.4,39.7,29.92,WSW,248,4.0,4.0,48,0.00,,,0.00,WUHU216HW,2013-07-10 10:02:00,
2013-07-10 04:04:00,58.7,39.1,29.92,WSW,248,2.5,4.0,48,0.00,,,0.00,WUHU216HW,2013-07-10 10:04:00,
2013-07-10 04:05:00,58.7,39.1,29.92,WSW,248,2.9,4.0,48,0.00,,,0.00,WUHU216HW,2013-07-10 10:05:00,
2013-07-10 04:07:00,58.0,38.3,29.92,WSW,248,5.6,6.0,48,0.00,,,0.00,WUHU216HW,2013-07-10 10:07:00,
2013-07-10 04:08:00,58.0,39.0,29.92,WSW,248,5.4,6.0,49,0.00,,,0.00,WUHU216HW,2013-07-10 10:08:00,
2013-07-10 04:09:00,58.0,38.3,29.92,WSW,248,3.1,6.0,48,0.00,,,0.00,WUHU216HW,2013-07-10 10:09:00,
2013-07-10 04:10:00,58.0,39.0,29.92,SSW,203,3.8,6.0,49,0.00,,,0.00,WUHU216HW,2013-07-10 10:10:00,
2013-07-10 04:12:00,58.0,39.0,29.92,WSW,248,5.6,6.0,49,0.00,,,0.00,WUHU216HW,2013-07-10 10:12:00,
2013-07-10 04:13:00,58.0,39.0,29.92,WSW,248,4.7,6.0,49,0.00,,,0.00,WUHU216HW,2013-07-10 10:13:00,
2013-07-10 04:15:00,58.1,39.2,29.92,WSW,248,5.6,6.5,49,0.00,,,0.00,WUHU216HW,2013-07-10 10:15:00,
2013-07-10 04:17:00,58.1,39.2,29.92,WSW,248,6.9,6.9,49,0.00,,,0.00,WUHU216HW,2013-07-10 10:17:00,
2013-07-10 04:18:00,58.1,39.2,29.93,WSW,248,6.3,6.9,49,0.00,,,0.00,WUHU216HW,2013-07-10 10:18:00,
2013-07-10 04:20:00,58.3,39.2,29.93,WSW,248,5.6,6.9,49,0.00,,,0.00,WUHU216HW,2013-07-10 10:20:00,
2013-07-10 04:22:00,58.5,38.9,29.93,WSW,248,6.7,6.9,48,0.00,,,0.00,WUHU216HW,2013-07-10 10:22:00,
2013-07-10 04:23:00,58.5,38.9,29.93,WSW,248,5.8,6.9,48,0.00,,,0.00,WUHU216HW,2013-07-10 10:23:00,
2013-07-10 04:25:00,58.5,38.9,29.93,WSW,248,4.9,6.9,48,0.00,,,0.00,WUHU216HW,2013-07-10 10:25:00,
2013-07-10 04:26:00,58.7,39.1,29.93,WSW,248,4.5,6.9,48,0.00,,,0.00,WUHU216HW,2013-07-10 10:26:00,
2013-07-10 04:28:00,58.7,39.1,29.92,WSW,248,4.7,6.9,48,0.00,,,0.00,WUHU216HW,2013-07-10 10:28:00,
2013-07-10 04:31:00,58.7,39.1,29.92,WSW,248,4.7,6.9,48,0.00,,,0.00,WUHU216HW,2013-07-10 10:31:00,
2013-07-10 04:33:00,59.0,38.8,29.93,SW,225,4.7,6.3,47,0.00,,,0.00,WUHU216HW,2013-07-10 10:33:00,
2013-07-10 04:34:00,59.2,39.0,29.92,SW,225,4.0,5.4,47,0.00,,,0.00,WUHU216HW,2013-07-10 10:34:00,
2013-07-10 04:36:00,59.2,39.5,29.92,SW,225,4.0,5.4,48,0.00,,,0.00,WUHU216HW,2013-07-10 10:36:00,
2013-07-10 04:38:00,59.4,39.7,29.93,SW,225,3.4,5.1,48,0.00,,,0.00,WUHU216HW,2013-07-10 10:38:00,
2013-07-10 04:39:00,59.4,39.7,29.93,SW,225,3.1,5.1,48,0.00,,,0.00,WUHU216HW,2013-07-10 10:39:00,
2013-07-10 04:41:00,59.2,39.5,29.93,WSW,248,4.7,5.1,48,0.00,,,0.00,WUHU216HW,2013-07-10 10:41:00,
2013-07-10 04:43:00,59.2,39.0,29.93,WSW,248,5.4,5.4,47,0.00,,,0.00,WUHU216HW,2013-07-10 10:43:00,
2013-07-10 04:44:00,59.0,38.8,29.93,WSW,248,4.9,5.4,47,0.00,,,0.00,WUHU216HW,2013-07-10 10:44:00,
2013-07-10 04:46:00,59.0,38.8,29.93,WSW,248,4.9,5.4,47,0.00,,,0.00,WUHU216HW,2013-07-10 10:46:00,
2013-07-10 04:48:00,59.0,38.8,29.93,WSW,248,2.7,5.4,47,0.00,,,0.00,WUHU216HW,2013-07-10 10:48:00,
2013-07-10 04:50:00,59.0,38.8,29.93,WSW,248,3.8,5.4,47,0.00,,,0.00,WUHU216HW,2013-07-10 10:50:00,
2013-07-10 04:51:00,59.0,38.8,29.93,WSW,248,3.4,5.4,47,0.00,,,0.00,WUHU216HW,2013-07-10 10:51:00,
2013-07-10 04:52:00,59.0,38.8,29.92,SW,225,3.4,5.4,47,0.00,,,0.00,WUHU216HW,2013-07-10 10:52:00,
2013-07-10 04:53:00,59.0,38.8,29.92,SW,225,3.4,4.9,47,0.00,,,0.00,WUHU216HW,2013-07-10 10:53:00,
2013-07-10 04:54:00,59.0,38.8,29.93,SW,225,3.1,4.9,47,0.00,,,0.00,WUHU216HW,2013-07-10 10:54:00,
2013-07-10 04:55:00,59.0,38.8,29.93,SW,225,3.1,4.9,47,0.00,,,0.00,WUHU216HW,2013-07-10 10:55:00,
2013-07-10 04:56:00,59.0,38.8,29.92,SW,225,3.4,4.9,47,0.00,,,0.00,WUHU216HW,2013-07-10 10:56:00,
2013-07-10 04:58:00,58.9,38.6,29.92,SW,225,4.0,4.0,47,0.00,,,0.00,WUHU216HW,2013-07-10 10:58:00,
2013-07-10 04:59:00,58.9,38.6,29.92,WSW,248,4.3,4.3,47,0.00,,,0.00,WUHU216HW,2013-07-10 10:59:00,
2013-07-10 05:00:00,58.9,39.2,29.92,WSW,248,4.7,4.7,48,0.00,,,0.00,WUHU216HW,2013-07-10 11:00:00,
2013-07-10 05:01:00,58.9,39.2,29.92,WSW,248,4.7,4.7,48,0.00,,,0.00,WUHU216HW,2013-07-10 11:01:00,
2013-07-10 05:03:00,58.7,39.1,29.92,WSW,248,4.3,4.7,48,0.00,,,0.00,WUHU216HW,2013-07-10 11:03:00,
2013-07-10 05:04:00,58.5,38.9,29.93,SW,225,3.4,4.7,48,0.00,,,0.00,WUHU216HW,2013-07-10 11:04:00,
2013-07-10 05:05:00,58.5,38.9,29.93,SW,225,2.2,4.7,48,0.00,,,0.00,WUHU216HW,2013-07-10 11:05:00,
2013-07-10 05:06:00,58.3,38.7,29.93,SW,225,1.8,4.7,48,0.00,,,0.00,WUHU216HW,2013-07-10 11:06:00,
2013-07-10 05:08:00,58.3,38.7,29.93,SSW,203,0.9,4.7,48,0.00,,,0.00,WUHU216HW,2013-07-10 11:08:00,
2013-07-10 05:09:00,58.1,38.5,29.93,SW,225,1.1,4.7,48,0.00,,,0.00,WUHU216HW,2013-07-10 11:09:00,
2013-07-10 05:10:00,58.1,38.5,29.93,WSW,248,1.6,4.7,48,0.00,,,0.00,WUHU216HW,2013-07-10 11:10:00,
2013-07-10 05:12:00,58.0,38.3,29.93,WSW,248,2.9,4.7,48,0.00,,,0.00,WUHU216HW,2013-07-10 11:12:00,
2013-07-10 05:14:00,57.6,38.1,29.93,WSW,248,1.6,3.8,48,0.00,,,0.00,WUHU216HW,2013-07-10 11:14:00,
2013-07-10 05:15:00,57.2,38.4,29.93,SSW,203,1.3,3.1,49,0.00,,,0.00,WUHU216HW,2013-07-10 11:15:00,
2013-07-10 05:17:00,56.9,38.0,29.93,South,180,3.1,3.4,49,0.00,,,0.00,WUHU216HW,2013-07-10 11:17:00,
2013-07-10 05:19:00,56.9,38.5,29.93,SSE,158,2.5,3.4,50,0.00,,,0.00,WUHU216HW,2013-07-10 11:19:00,
2013-07-10 05:20:00,56.7,38.3,29.93,SSE,158,1.6,3.4,50,0.00,,,0.00,WUHU216HW,2013-07-10 11:20:00,
2013-07-10 05:22:00,56.5,38.6,29.93,SSW,203,1.3,3.4,51,0.00,,,0.00,WUHU216HW,2013-07-10 11:22:00,
2013-07-10 05:24:00,56.2,37.8,29.93,SW,225,1.3,3.4,50,0.00,,,0.00,WUHU216HW,2013-07-10 11:24:00,
2013-07-10 05:25:00,56.2,37.8,29.93,SW,225,2.0,3.4,50,0.00,,,0.00,WUHU216HW,2013-07-10 11:25:00,
2013-07-10 05:26:00,56.2,38.3,29.93,SW,225,2.5,3.4,51,0.00,,,0.00,WUHU216HW,2013-07-10 11:26:00,
2013-07-10 05:27:00,56.0,38.5,29.93,SW,225,4.0,4.0,52,0.00,,,0.00,WUHU216HW,2013-07-10 11:27:00,
2013-07-10 05:29:00,56.0,39.1,29.93,SSW,203,4.7,4.7,53,0.00,,,0.00,WUHU216HW,2013-07-10 11:29:00,
2013-07-10 05:30:00,56.0,39.1,29.93,SSW,203,4.7,4.7,53,0.00,,,0.00,WUHU216HW,2013-07-10 11:30:00,
2013-07-10 05:31:00,56.0,39.1,29.93,SSW,203,5.4,5.8,53,0.00,,,0.00,WUHU216HW,2013-07-10 11:31:00,
2013-07-10 05:33:00,56.2,39.3,29.93,South,180,4.7,5.8,53,0.00,,,0.00,WUHU216HW,2013-07-10 11:33:00,
2013-07-10 05:35:00,56.3,39.9,29.93,South,180,5.1,5.8,54,0.00,,,0.00,WUHU216HW,2013-07-10 11:35:00,
2013-07-10 05:36:00,56.3,39.9,29.92,South,180,5.4,5.8,54,0.00,,,0.00,WUHU216HW,2013-07-10 11:36:00,
2013-07-10 05:38:00,56.3,39.9,29.93,South,180,6.3,6.5,54,0.00,,,0.00,WUHU216HW,2013-07-10 11:38:00,
2013-07-10 05:40:00,56.5,40.1,29.92,SSE,158,5.4,6.9,54,0.00,,,0.00,WUHU216HW,2013-07-10 11:40:00,
2013-07-10 05:41:00,56.5,40.1,29.92,SSE,158,5.1,6.9,54,0.00,,,0.00,WUHU216HW,2013-07-10 11:41:00,
2013-07-10 05:43:00,56.5,40.1,29.93,SSE,158,5.1,6.9,54,0.00,,,0.00,WUHU216HW,2013-07-10 11:43:00,
2013-07-10 05:45:00,56.5,40.1,29.93,South,180,4.3,6.9,54,0.00,,,0.00,WUHU216HW,2013-07-10 11:45:00,
2013-07-10 05:46:00,56.5,40.1,29.93,South,180,3.8,6.9,54,0.00,,,0.00,WUHU216HW,2013-07-10 11:46:00,
2013-07-10 05:47:00,56.7,40.2,29.93,South,180,3.4,6.9,54,0.00,,,0.00,WUHU216HW,2013-07-10 11:47:00,
2013-07-10 05:48:00,56.7,40.2,29.93,SSE,158,3.1,6.9,54,0.00,,,0.00,WUHU216HW,2013-07-10 11:48:00,
2013-07-10 05:50:00,56.7,40.2,29.93,SSE,158,3.4,5.6,54,0.00,,,0.00,WUHU216HW,2013-07-10 11:50:00,
2013-07-10 05:51:00,56.7,40.2,29.93,SSE,158,3.4,5.1,54,0.00,,,0.00,WUHU216HW,2013-07-10 11:51:00,
2013-07-10 05:52:00,56.7,40.2,29.93,SSE,158,3.4,5.1,54,0.00,,,0.00,WUHU216HW,2013-07-10 11:52:00,
2013-07-10 05:53:00,57.1,40.2,29.93,South,180,2.5,5.1,53,0.00,,,0.00,WUHU216HW,2013-07-10 11:53:00,
2013-07-10 05:55:00,57.1,40.2,29.93,South,180,3.4,4.0,53,0.00,,,0.00,WUHU216HW,2013-07-10 11:55:00,
2013-07-10 05:56:00,57.2,40.3,29.93,South,180,4.0,4.0,53,0.00,,,0.00,WUHU216HW,2013-07-10 11:56:00,
2013-07-10 05:57:00,57.1,40.2,29.93,South,180,3.6,4.0,53,0.00,,,0.00,WUHU216HW,2013-07-10 11:57:00,
2013-07-10 05:59:00,57.2,40.3,29.93,SSW,203,2.7,4.0,53,0.00,,,0.00,WUHU216HW,2013-07-10 11:59:00,
2013-07-10 06:01:00,57.2,40.3,29.93,SSW,203,3.1,4.0,53,0.00,,,0.00,WUHU216HW,2013-07-10 12:01:00,
2013-07-10 06:03:00,57.2,40.3,29.93,SSW,203,3.1,4.0,53,0.00,,,0.00,WUHU216HW,2013-07-10 12:03:00,
2013-07-10 06:04:00,57.4,40.4,29.93,SSW,203,2.7,4.0,53,0.00,,,0.00,WUHU216HW,2013-07-10 12:04:00,
2013-07-10 06:06:00,57.2,40.3,29.93,SSW,203,2.0,4.0,53,0.00,,,0.00,WUHU216HW,2013-07-10 12:06:00,
2013-07-10 06:07:00,57.2,40.3,29.93,South,180,2.0,3.6,53,0.00,,,0.00,WUHU216HW,2013-07-10 12:07:00,
2013-07-10 06:08:00,57.2,40.3,29.93,SSE,158,3.4,3.6,53,0.00,,,0.00,WUHU216HW,2013-07-10 12:08:00,
2013-07-10 06:09:00,57.2,40.3,29.93,SSE,158,3.8,3.8,53,0.00,,,0.00,WUHU216HW,2013-07-10 12:09:00,
2013-07-10 06:11:00,57.2,40.3,29.93,South,180,3.8,3.8,53,0.00,,,0.00,WUHU216HW,2013-07-10 12:11:00,
2013-07-10 06:12:00,57.4,40.4,29.93,South,180,4.0,4.0,53,0.00,,,0.00,WUHU216HW,2013-07-10 12:12:00,
2013-07-10 06:13:00,57.2,40.3,29.93,SSE,158,5.1,5.1,53,0.00,,,0.00,WUHU216HW,2013-07-10 12:13:00,
2013-07-10 06:15:00,57.2,40.8,29.93,South,180,5.8,5.8,54,0.00,,,0.00,WUHU216HW,2013-07-10 12:15:00,
2013-07-10 06:16:00,57.2,40.8,29.93,South,180,5.4,6.3,54,0.00,,,0.00,WUHU216HW,2013-07-10 12:16:00,
2013-07-10 06:17:00,57.2,40.8,29.93,South,180,5.6,6.5,54,0.00,,,0.00,WUHU216HW,2013-07-10 12:17:00,
2013-07-10 06:18:00,57.2,40.8,29.93,SSE,158,5.8,6.5,54,0.00,,,0.00,WUHU216HW,2013-07-10 12:18:00,
2013-07-10 06:20:00,57.2,40.8,29.93,SSE,158,5.8,6.5,54,0.00,,,0.00,WUHU216HW,2013-07-10 12:20:00,
2013-07-10 06:22:00,57.4,41.4,29.93,SSE,158,6.5,6.5,55,0.00,,,0.00,WUHU216HW,2013-07-10 12:22:00,
2013-07-10 06:23:00,57.4,41.9,29.93,South,180,6.0,6.7,56,0.00,,,0.00,WUHU216HW,2013-07-10 12:23:00,
2013-07-10 06:25:00,57.6,42.0,29.93,South,180,4.3,6.7,56,0.00,,,0.00,WUHU216HW,2013-07-10 12:25:00,
2013-07-10 06:27:00,57.6,42.0,29.93,SSE,158,4.7,6.7,56,0.00,,,0.00,WUHU216HW,2013-07-10 12:27:00,
2013-07-10 06:28:00,57.8,42.7,29.93,SSE,158,4.0,6.7,57,0.00,,,0.00,WUHU216HW,2013-07-10 12:28:00,
2013-07-10 06:30:00,58.0,42.9,29.93,SSE,158,3.1,6.7,57,0.00,,,0.00,WUHU216HW,2013-07-10 12:30:00,
2013-07-10 06:32:00,58.0,42.9,29.93,SSE,158,2.9,6.7,57,0.00,,,0.00,WUHU216HW,2013-07-10 12:32:00,
2013-07-10 06:34:00,58.0,42.9,29.93,SSE,158,2.9,5.6,57,0.00,,,0.00,WUHU216HW,2013-07-10 12:34:00,
2013-07-10 06:35:00,58.3,43.1,29.93,South,180,3.8,4.9,57,0.00,,,0.00,WUHU216HW,2013-07-10 12:35:00,
2013-07-10 06:37:00,58.5,43.3,29.93,South,180,4.7,4.7,57,0.00,,,0.00,WUHU216HW,2013-07-10 12:37:00,
2013-07-10 06:39:00,58.7,43.5,29.93,SSE,158,4.7,4.7,57,0.00,,,0.00,WUHU216HW,2013-07-10 12:39:00,
2013-07-10 06:41:00,58.7,43.5,29.93,SSE,158,5.6,6.3,57,0.00,,,0.00,WUHU216HW,2013-07-10 12:41:00,
2013-07-10 06:42:00,58.7,43.5,29.93,SSE,158,4.5,6.3,57,0.00,,,0.00,WUHU216HW,2013-07-10 12:42:00,
2013-07-10 06:43:00,58.7,43.5,29.93,SE,135,5.1,6.3,57,0.00,,,0.00,WUHU216HW,2013-07-10 12:43:00,
2013-07-10 06:44:00,58.7,43.5,29.93,SE,135,5.1,6.3,57,0.00,,,0.00,WUHU216HW,2013-07-10 12:44:00,
2013-07-10 06:46:00,58.7,43.5,29.93,SSE,158,5.4,6.3,57,0.00,,,0.00,WUHU216HW,2013-07-10 12:46:00,
2013-07-10 06:47:00,58.9,43.7,29.93,SSE,158,5.4,6.3,57,0.00,,,0.00,WUHU216HW,2013-07-10 12:47:00,
2013-07-10 06:48:00,58.9,43.7,29.93,SE,135,6.0,6.3,57,0.00,,,0.00,WUHU216HW,2013-07-10 12:48:00,
2013-07-10 06:49:00,58.9,44.1,29.93,SSE,158,6.9,6.9,58,0.00,,,0.00,WUHU216HW,2013-07-10 12:49:00,
2013-07-10 06:51:00,59.0,43.7,29.93,SE,135,5.4,6.9,57,0.00,,,0.00,WUHU216HW,2013-07-10 12:51:00,
2013-07-10 06:52:00,59.0,43.7,29.93,SE,135,4.0,6.9,57,0.00,,,0.00,WUHU216HW,2013-07-10 12:52:00,
2013-07-10 06:53:00,59.0,43.7,29.93,SSE,158,4.7,6.9,57,0.00,,,0.00,WUHU216HW,2013-07-10 12:53:00,
2013-07-10 06:54:00,59.0,43.7,29.93,SSE,158,4.7,6.9,57,0.00,,,0.00,WUHU216HW,2013-07-10 12:54:00,
2013-07-10 06:55:00,59.2,43.9,29.93,SSE,158,5.8,6.9,57,0.00,,,0.00,WUHU216HW,2013-07-10 12:55:00,
2013-07-10 06:56:00,59.2,43.9,29.93,SSE,158,5.6,6.9,57,0.00,,,0.00,WUHU216HW,2013-07-10 12:56:00,
2013-07-10 06:57:00,59.2,43.9,29.93,SE,135,4.7,6.9,57,0.00,,,0.00,WUHU216HW,2013-07-10 12:57:00,
2013-07-10 06:58:00,59.2,43.9,29.93,SE,135,4.7,6.9,57,0.00,,,0.00,WUHU216HW,2013-07-10 12:58:00,
2013-07-10 06:59:00,59.4,43.7,29.93,South,180,4.5,6.9,56,0.00,,,0.00,WUHU216HW,2013-07-10 12:59:00,
2013-07-10 07:00:00,59.4,43.7,29.93,SSE,158,4.9,6.7,56,0.00,,,0.00,WUHU216HW,2013-07-10 13:00:00,
2013-07-10 07:01:00,59.4,43.7,29.93,SSE,158,4.9,6.7,56,0.00,,,0.00,WUHU216HW,2013-07-10 13:01:00,
2013-07-10 07:03:00,59.4,43.7,29.93,SSE,158,4.9,6.7,56,0.00,,,0.00,WUHU216HW,2013-07-10 13:03:00,
2013-07-10 07:04:00,59.4,44.1,29.93,SE,135,6.5,6.7,57,0.00,,,0.00,WUHU216HW,2013-07-10 13:04:00,
2013-07-10 07:05:00,59.6,44.3,29.93,SSE,158,4.7,6.7,57,0.00,,,0.00,WUHU216HW,2013-07-10 13:05:00,
2013-07-10 07:06:00,59.6,44.3,29.93,SE,135,6.0,6.7,57,0.00,,,0.00,WUHU216HW,2013-07-10 13:06:00,
2013-07-10 07:08:00,59.6,43.8,29.93,SE,135,7.4,7.4,56,0.00,,,0.00,WUHU216HW,2013-07-10 13:08:00,
2013-07-10 07:09:00,59.6,43.8,29.93,SE,135,6.7,7.4,56,0.00,,,0.00,WUHU216HW,2013-07-10 13:09:00,
2013-07-10 07:10:00,59.6,44.3,29.93,SE,135,6.3,8.1,57,0.00,,,0.00,WUHU216HW,2013-07-10 13:10:00,
2013-07-10 07:11:00,59.6,44.3,29.93,SE,135,6.3,8.1,57,0.00,,,0.00,WUHU216HW,2013-07-10 13:11:00,
2013-07-10 07:13:00,59.8,44.5,29.93,SE,135,5.4,8.1,57,0.00,,,0.00,WUHU216HW,2013-07-10 13:13:00,
2013-07-10 07:14:00,59.8,44.5,29.93,ESE,113,6.9,8.1,57,0.00,,,0.00,WUHU216HW,2013-07-10 13:14:00,
2013-07-10 07:15:00,59.8,44.5,29.93,SE,135,7.4,8.1,57,0.00,,,0.00,WUHU216HW,2013-07-10 13:15:00,
2013-07-10 07:17:00,59.8,44.9,29.93,SE,135,8.5,8.5,58,0.00,,,0.00,WUHU216HW,2013-07-10 13:17:00,
2013-07-10 07:18:00,59.8,44.9,29.93,SE,135,6.3,8.5,58,0.00,,,0.00,WUHU216HW,2013-07-10 13:18:00,
2013-07-10 07:19:00,59.8,44.9,29.93,SE,135,7.6,8.7,58,0.00,,,0.00,WUHU216HW,2013-07-10 13:19:00,
2013-07-10 07:20:00,59.8,44.9,29.93,SE,135,7.4,8.7,58,0.00,,,0.00,WUHU216HW,2013-07-10 13:20:00,
2013-07-10 07:22:00,59.8,44.9,29.93,SE,135,5.1,8.7,58,0.00,,,0.00,WUHU216HW,2013-07-10 13:22:00,
2013-07-10 07:23:00,59.9,45.1,29.93,SE,135,5.6,8.7,58,0.00,,,0.00,WUHU216HW,2013-07-10 13:23:00,
2013-07-10 07:24:00,59.9,45.1,29.93,SE,135,7.6,8.7,58,0.00,,,0.00,WUHU216HW,2013-07-10 13:24:00,
2013-07-10 07:25:00,60.1,44.8,29.93,ESE,113,5.4,8.7,57,0.00,,,0.00,WUHU216HW,2013-07-10 13:25:00,
2013-07-10 07:26:00,60.1,44.8,29.93,SE,135,6.3,8.7,57,0.00,,,0.00,WUHU216HW,2013-07-10 13:26:00,
2013-07-10 07:27:00,60.1,44.8,29.93,SSE,158,7.4,8.7,57,0.00,,,0.00,WUHU216HW,2013-07-10 13:27:00,
2013-07-10 07:28:00,60.1,44.8,29.93,SE,135,8.1,8.3,57,0.00,,,0.00,WUHU216HW,2013-07-10 13:28:00,
2013-07-10 07:29:00,60.1,44.8,29.93,SSE,158,9.6,9.6,57,0.00,,,0.00,WUHU216HW,2013-07-10 13:29:00,
2013-07-10 07:31:00,60.3,45.0,29.93,SSE,158,6.0,9.6,57,0.00,,,0.00,WUHU216HW,2013-07-10 13:31:00,
2013-07-10 07:32:00,60.5,45.2,29.93,SE,135,6.5,9.6,57,0.00,,,0.00,WUHU216HW,2013-07-10 13:32:00,
2013-07-10 07:33:00,60.5,45.2,29.93,SE,135,7.6,9.6,57,0.00,,,0.00,WUHU216HW,2013-07-10 13:33:00,
2013-07-10 07:34:00,60.5,45.2,29.93,SE,135,6.9,9.6,57,0.00,,,0.00,WUHU216HW,2013-07-10 13:34:00,
2013-07-10 07:36:00,60.7,45.4,29.93,SE,135,5.8,9.6,57,0.00,,,0.00,WUHU216HW,2013-07-10 13:36:00,
2013-07-10 07:37:00,60.7,45.4,29.93,SSE,158,5.6,9.6,57,0.00,,,0.00,WUHU216HW,2013-07-10 13:37:00,
2013-07-10 07:38:00,60.8,45.6,29.93,SSE,158,5.4,9.6,57,0.00,,,0.00,WUHU216HW,2013-07-10 13:38:00,
2013-07-10 07:40:00,60.8,45.6,29.93,SSE,158,8.5,9.2,57,0.00,,,0.00,WUHU216HW,2013-07-10 13:40:00,
2013-07-10 07:41:00,61.0,45.7,29.93,SSE,158,5.8,9.2,57,0.00,,,0.00,WUHU216HW,2013-07-10 13:41:00,
2013-07-10 07:42:00,61.0,45.7,29.93,SSE,158,5.8,9.2,57,0.00,,,0.00,WUHU216HW,2013-07-10 13:42:00,
2013-07-10 07:43:00,61.2,45.8,29.93,SE,135,7.6,9.2,57,0.00,,,0.00,WUHU216HW,2013-07-10 13:43:00,
2013-07-10 07:45:00,61.2,45.4,29.93,SSE,158,6.9,9.2,56,0.00,,,0.00,WUHU216HW,2013-07-10 13:45:00,
2013-07-10 07:46:00,61.4,45.6,29.93,SE,135,7.6,9.2,56,0.00,,,0.00,WUHU216HW,2013-07-10 13:46:00,
2013-07-10 07:47:00,61.4,45.6,29.93,SE,135,7.6,9.2,56,0.00,,,0.00,WUHU216HW,2013-07-10 13:47:00,
2013-07-10 07:48:00,61.6,45.7,29.93,SE,135,6.7,9.2,56,0.00,,,0.00,WUHU216HW,2013-07-10 13:48:00,
2013-07-10 07:50:00,61.6,45.7,29.93,SE,135,5.4,8.7,56,0.00,,,0.00,WUHU216HW,2013-07-10 13:50:00,
2013-07-10 07:51:00,61.6,45.7,29.93,SE,135,5.6,8.7,56,0.00,,,0.00,WUHU216HW,2013-07-10 13:51:00,
2013-07-10 07:52:00,61.6,45.7,29.93,SSE,158,6.9,8.7,56,0.00,,,0.00,WUHU216HW,2013-07-10 13:52:00,
2013-07-10 07:53:00,61.7,45.8,29.93,SSE,158,5.8,8.1,56,0.00,,,0.00,WUHU216HW,2013-07-10 13:53:00,
2013-07-10 07:56:00,61.7,45.8,29.93,ESE,113,4.9,8.1,56,0.00,,,0.00,WUHU216HW,2013-07-10 13:56:00,
2013-07-10 07:57:00,61.9,46.0,29.93,SE,135,5.8,8.1,56,0.00,,,0.00,WUHU216HW,2013-07-10 13:57:00,
2013-07-10 07:59:00,61.9,45.6,29.93,SE,135,4.7,8.1,55,0.00,,,0.00,WUHU216HW,2013-07-10 13:59:00,
2013-07-10 08:01:00,62.1,45.7,29.93,ESE,113,2.5,8.1,55,0.00,,,0.00,WUHU216HW,2013-07-10 14:01:00,
2013-07-10 08:02:00,62.1,45.7,29.93,SE,135,3.1,8.1,55,0.00,,,0.00,WUHU216HW,2013-07-10 14:02:00,
2013-07-10 08:04:00,62.3,45.8,29.93,ESE,113,4.5,8.1,55,0.00,,,0.00,WUHU216HW,2013-07-10 14:04:00,
2013-07-10 08:06:00,62.3,45.8,29.93,SE,135,4.7,6.3,55,0.00,,,0.00,WUHU216HW,2013-07-10 14:06:00,
2013-07-10 08:07:00,62.3,45.8,29.93,SE,135,4.3,6.0,55,0.00,,,0.00,WUHU216HW,2013-07-10 14:07:00,
2013-07-10 08:08:00,62.3,45.4,29.93,SSE,158,4.7,5.8,54,0.00,,,0.00,WUHU216HW,2013-07-10 14:08:00,
2013-07-10 08:09:00,62.5,45.6,29.93,SE,135,3.8,5.4,54,0.00,,,0.00,WUHU216HW,2013-07-10 14:09:00,
2013-07-10 08:12:00,62.6,45.7,29.93,SSE,158,1.8,5.4,54,0.00,,,0.00,WUHU216HW,2013-07-10 14:12:00,
2013-07-10 08:14:00,63.0,46.0,29.93,SSE,158,2.7,5.4,54,0.00,,,0.00,WUHU216HW,2013-07-10 14:14:00,
2013-07-10 08:17:00,63.2,46.2,29.93,East,90,2.0,4.7,54,0.00,,,0.00,WUHU216HW,2013-07-10 14:17:00,
2013-07-10 08:19:00,63.4,46.4,29.93,SSE,158,1.6,4.0,54,0.00,,,0.00,WUHU216HW,2013-07-10 14:19:00,
2013-07-10 08:22:00,63.7,46.2,29.93,ESE,113,2.0,4.0,53,0.00,,,0.00,WUHU216HW,2013-07-10 14:22:00,
2013-07-10 08:23:00,63.9,46.4,29.93,ESE,113,2.2,4.0,53,0.00,,,0.00,WUHU216HW,2013-07-10 14:23:00,
2013-07-10 08:24:00,64.1,46.5,29.93,ESE,113,3.4,4.7,53,0.00,,,0.00,WUHU216HW,2013-07-10 14:24:00,
2013-07-10 08:27:00,64.1,46.0,29.93,SE,135,2.2,4.7,52,0.00,,,0.00,WUHU216HW,2013-07-10 14:27:00,
2013-07-10 08:28:00,64.3,46.2,29.93,ESE,113,4.5,4.7,52,0.00,,,0.00,WUHU216HW,2013-07-10 14:28:00,
2013-07-10 08:29:00,64.4,46.4,29.93,SE,135,3.6,4.7,52,0.00,,,0.00,WUHU216HW,2013-07-10 14:29:00,
2013-07-10 08:30:00,64.4,46.4,29.93,SE,135,3.6,4.7,52,0.00,,,0.00,WUHU216HW,2013-07-10 14:30:00,
2013-07-10 08:32:00,64.6,46.5,29.93,ESE,113,5.6,6.5,52,0.00,,,0.00,WUHU216HW,2013-07-10 14:32:00,
2013-07-10 08:33:00,64.8,46.7,29.93,SE,135,3.8,6.5,52,0.00,,,0.00,WUHU216HW,2013-07-10 14:33:00,
2013-07-10 08:35:00,64.8,46.7,29.93,East,90,3.6,6.5,52,0.00,,,0.00,WUHU216HW,2013-07-10 14:35:00,
2013-07-10 08:37:00,64.8,46.2,29.93,SE,135,2.5,6.5,51,0.00,,,0.00,WUHU216HW,2013-07-10 14:37:00,
2013-07-10 08:38:00,65.0,46.4,29.93,SSE,158,3.1,6.5,51,0.00,,,0.00,WUHU216HW,2013-07-10 14:38:00,
2013-07-10 08:40:00,65.0,46.9,29.93,ESE,113,4.0,6.5,52,0.00,,,0.00,WUHU216HW,2013-07-10 14:40:00,
2013-07-10 08:42:00,65.2,47.1,29.93,ENE,68,4.0,5.8,52,0.00,,,0.00,WUHU216HW,2013-07-10 14:42:00,
2013-07-10 08:43:00,65.2,47.1,29.93,ESE,113,4.0,5.8,52,0.00,,,0.00,WUHU216HW,2013-07-10 14:43:00,
2013-07-10 08:45:00,65.3,46.7,29.93,SSE,158,2.9,5.8,51,0.00,,,0.00,WUHU216HW,2013-07-10 14:45:00,
2013-07-10 08:46:00,65.5,46.9,29.93,SE,135,3.6,5.8,51,0.00,,,0.00,WUHU216HW,2013-07-10 14:46:00,
2013-07-10 08:47:00,65.7,47.1,29.93,ENE,68,2.0,5.8,51,0.00,,,0.00,WUHU216HW,2013-07-10 14:47:00,
2013-07-10 08:48:00,65.7,47.1,29.93,ENE,68,2.0,5.8,51,0.00,,,0.00,WUHU216HW,2013-07-10 14:48:00,
2013-07-10 08:50:00,65.9,47.3,29.93,NE,45,1.8,5.8,51,0.00,,,0.00,WUHU216HW,2013-07-10 14:50:00,
2013-07-10 08:51:00,65.9,47.3,29.93,SE,135,3.6,4.0,51,0.00,,,0.00,WUHU216HW,2013-07-10 14:51:00,
2013-07-10 08:52:00,66.2,47.6,29.93,East,90,1.1,4.0,51,0.00,,,0.00,WUHU216HW,2013-07-10 14:52:00,
2013-07-10 08:53:00,66.2,47.6,29.93,East,90,1.1,4.0,51,0.00,,,0.00,WUHU216HW,2013-07-10 14:53:00,
2013-07-10 08:55:00,66.4,47.4,29.93,SSE,158,1.1,3.6,50,0.00,,,0.00,WUHU216HW,2013-07-10 14:55:00,
2013-07-10 08:56:00,66.4,47.4,29.93,SSE,158,1.1,3.6,50,0.00,,,0.00,WUHU216HW,2013-07-10 14:56:00,
2013-07-10 08:58:00,66.6,47.5,29.93,ESE,113,2.5,3.6,50,0.00,,,0.00,WUHU216HW,2013-07-10 14:58:00,
2013-07-10 08:59:00,66.6,46.9,29.93,East,90,2.5,3.6,49,0.00,,,0.00,WUHU216HW,2013-07-10 14:59:00,
2013-07-10 09:00:00,66.6,46.9,29.93,East,90,2.5,3.6,49,0.00,,,0.00,WUHU216HW,2013-07-10 15:00:00,
2013-07-10 09:01:00,66.6,46.9,29.93,East,90,2.5,2.9,49,0.00,,,0.00,WUHU216HW,2013-07-10 15:01:00,
2013-07-10 09:03:00,67.0,47.3,29.93,ESE,113,3.8,3.8,49,0.00,,,0.00,WUHU216HW,2013-07-10 15:03:00,
2013-07-10 09:04:00,67.0,47.3,29.93,ESE,113,3.1,3.8,49,0.00,,,0.00,WUHU216HW,2013-07-10 15:04:00,
2013-07-10 09:05:00,67.3,47.5,29.93,SE,135,0.7,3.8,49,0.00,,,0.00,WUHU216HW,2013-07-10 15:05:00,
2013-07-10 09:06:00,67.3,47.0,29.93,SE,135,2.2,3.8,48,0.00,,,0.00,WUHU216HW,2013-07-10 15:06:00,
2013-07-10 09:08:00,67.5,47.1,29.93,ENE,68,2.2,3.8,48,0.00,,,0.00,WUHU216HW,2013-07-10 15:08:00,
2013-07-10 09:09:00,67.5,46.5,29.93,ENE,68,2.2,3.8,47,0.00,,,0.00,WUHU216HW,2013-07-10 15:09:00,
2013-07-10 09:10:00,67.5,47.1,29.93,ESE,113,2.2,3.8,48,0.00,,,0.00,WUHU216HW,2013-07-10 15:10:00,
2013-07-10 09:12:00,67.7,47.3,29.93,SSE,158,2.0,4.5,48,0.00,,,0.00,WUHU216HW,2013-07-10 15:12:00,
2013-07-10 09:13:00,67.9,47.4,29.92,South,180,1.1,4.5,48,0.00,,,0.00,WUHU216HW,2013-07-10 15:13:00,
2013-07-10 09:14:00,67.9,47.4,29.93,SE,135,0.4,4.5,48,0.00,,,0.00,WUHU216HW,2013-07-10 15:14:00,
2013-07-10 09:16:00,68.0,47.0,29.92,East,90,2.5,4.5,47,0.00,,,0.00,WUHU216HW,2013-07-10 15:16:00,
2013-07-10 09:17:00,68.2,47.2,29.92,SSE,158,0.7,4.5,47,0.00,,,0.00,WUHU216HW,2013-07-10 15:17:00,
2013-07-10 09:18:00,68.2,47.2,29.92,SE,135,1.8,4.5,47,0.00,,,0.00,WUHU216HW,2013-07-10 15:18:00,
2013-07-10 09:20:00,68.2,47.2,29.92,SE,135,1.8,4.5,47,0.00,,,0.00,WUHU216HW,2013-07-10 15:20:00,
2013-07-10 09:21:00,68.2,47.2,29.92,SE,135,1.8,4.5,47,0.00,,,0.00,WUHU216HW,2013-07-10 15:21:00,
2013-07-10 09:22:00,68.8,47.6,29.92,South,180,4.0,4.0,47,0.00,,,0.00,WUHU216HW,2013-07-10 15:22:00,
2013-07-10 09:23:00,68.8,47.6,29.92,SSW,203,3.6,4.0,47,0.00,,,0.00,WUHU216HW,2013-07-10 15:23:00,
2013-07-10 09:25:00,69.1,48.0,29.92,South,180,0.4,4.0,47,0.00,,,0.00,WUHU216HW,2013-07-10 15:25:00,
2013-07-10 09:26:00,69.1,48.0,29.92,SW,225,1.8,4.0,47,0.00,,,0.00,WUHU216HW,2013-07-10 15:26:00,
2013-07-10 09:27:00,69.5,48.3,29.92,SSE,158,2.7,4.0,47,0.00,,,0.00,WUHU216HW,2013-07-10 15:27:00,
2013-07-10 09:29:00,69.5,48.9,29.92,SSW,203,2.7,4.0,48,0.00,,,0.00,WUHU216HW,2013-07-10 15:29:00,
2013-07-10 09:30:00,69.7,49.1,29.92,SSE,158,2.7,4.0,48,0.00,,,0.00,WUHU216HW,2013-07-10 15:30:00,
2013-07-10 09:31:00,69.8,49.2,29.92,WNW,293,0.9,4.0,48,0.00,,,0.00,WUHU216HW,2013-07-10 15:31:00,
2013-07-10 09:34:00,70.2,49.0,29.92,SW,225,1.8,4.0,47,0.00,,,0.00,WUHU216HW,2013-07-10 15:34:00,
2013-07-10 09:35:00,70.4,49.2,29.92,SSW,203,3.4,4.5,47,0.00,,,0.00,WUHU216HW,2013-07-10 15:35:00,
2013-07-10 09:36:00,70.4,49.2,29.92,SW,225,1.6,4.5,47,0.00,,,0.00,WUHU216HW,2013-07-10 15:36:00,
2013-07-10 09:39:00,70.7,49.4,29.92,SSW,203,3.4,4.5,47,0.00,,,0.00,WUHU216HW,2013-07-10 15:39:00,
2013-07-10 09:40:00,70.9,49.6,29.92,SSW,203,3.1,6.0,47,0.00,,,0.00,WUHU216HW,2013-07-10 15:40:00,
2013-07-10 09:41:00,71.1,49.8,29.92,SSE,158,2.5,6.0,47,0.00,,,0.00,WUHU216HW,2013-07-10 15:41:00,
2013-07-10 09:44:00,71.5,49.5,29.92,WSW,248,1.6,6.0,46,0.00,,,0.00,WUHU216HW,2013-07-10 15:44:00,
2013-07-10 09:45:00,71.6,49.7,29.92,SSW,203,4.3,6.0,46,0.00,,,0.00,WUHU216HW,2013-07-10 15:45:00,
2013-07-10 09:46:00,71.8,49.8,29.92,SW,225,1.8,6.0,46,0.00,,,0.00,WUHU216HW,2013-07-10 15:46:00,
2013-07-10 09:50:00,72.4,49.7,29.92,ESE,113,5.4,6.7,45,0.00,,,0.00,WUHU216HW,2013-07-10 15:50:00,
2013-07-10 09:52:00,72.7,50.1,29.92,SSW,203,5.1,6.7,45,0.00,,,0.00,WUHU216HW,2013-07-10 15:52:00,
2013-07-10 09:55:00,73.1,49.8,29.92,SSE,158,3.1,6.7,44,0.00,,,0.00,WUHU216HW,2013-07-10 15:55:00,
2013-07-10 09:56:00,73.1,49.8,29.92,SSE,158,7.2,7.2,44,0.00,,,0.00,WUHU216HW,2013-07-10 15:56:00,
2013-07-10 09:57:00,73.4,50.0,29.92,SSE,158,6.9,8.1,44,0.00,,,0.00,WUHU216HW,2013-07-10 15:57:00,
2013-07-10 10:00:00,73.6,49.7,29.92,ESE,113,5.4,8.1,43,0.00,,,0.00,WUHU216HW,2013-07-10 16:00:00,
2013-07-10 10:01:00,73.8,50.4,29.92,South,180,5.6,8.1,44,0.00,,,0.00,WUHU216HW,2013-07-10 16:01:00,
2013-07-10 10:02:00,73.8,50.4,29.92,SSE,158,7.6,8.1,44,0.00,,,0.00,WUHU216HW,2013-07-10 16:02:00,
2013-07-10 10:05:00,74.2,50.1,29.91,SE,135,6.9,8.7,43,0.00,,,0.00,WUHU216HW,2013-07-10 16:05:00,
2013-07-10 10:07:00,74.3,50.3,29.91,ESE,113,6.9,11.4,43,0.00,,,0.00,WUHU216HW,2013-07-10 16:07:00,
2013-07-10 10:10:00,74.7,50.7,29.91,SE,135,9.4,11.4,43,0.00,,,0.00,WUHU216HW,2013-07-10 16:10:00,
2013-07-10 10:12:00,74.9,50.9,29.92,SSE,158,7.6,11.4,43,0.00,,,0.00,WUHU216HW,2013-07-10 16:12:00,
2013-07-10 10:15:00,75.2,51.8,29.91,ESE,113,8.3,11.2,44,0.00,,,0.00,WUHU216HW,2013-07-10 16:15:00,
2013-07-10 10:16:00,75.2,51.8,29.91,SE,135,6.3,11.2,44,0.00,,,0.00,WUHU216HW,2013-07-10 16:16:00,
2013-07-10 10:17:00,75.2,51.1,29.91,SE,135,6.9,11.2,43,0.00,,,0.00,WUHU216HW,2013-07-10 16:17:00,
2013-07-10 10:21:00,75.6,52.1,29.91,ESE,113,4.7,9.8,44,0.00,,,0.00,WUHU216HW,2013-07-10 16:21:00,
2013-07-10 10:22:00,75.8,51.7,29.91,East,90,7.4,9.8,43,0.00,,,0.00,WUHU216HW,2013-07-10 16:22:00,
2013-07-10 10:23:00,75.8,51.7,29.91,SE,135,11.4,11.4,43,0.00,,,0.00,WUHU216HW,2013-07-10 16:23:00,
2013-07-10 10:26:00,76.0,52.4,29.91,ESE,113,8.5,11.4,44,0.00,,,0.00,WUHU216HW,2013-07-10 16:26:00,
2013-07-10 10:27:00,76.0,51.9,29.91,ESE,113,8.1,11.4,43,0.00,,,0.00,WUHU216HW,2013-07-10 16:27:00,
2013-07-10 10:28:00,76.1,51.9,29.91,SE,135,8.3,11.4,43,0.00,,,0.00,WUHU216HW,2013-07-10 16:28:00,
2013-07-10 10:31:00,76.3,52.1,29.90,SE,135,8.5,11.4,43,0.00,,,0.00,WUHU216HW,2013-07-10 16:31:00,
2013-07-10 10:32:00,76.5,52.3,29.90,ESE,113,6.7,11.4,43,0.00,,,0.00,WUHU216HW,2013-07-10 16:32:00,
2013-07-10 10:33:00,76.7,52.5,29.90,SE,135,12.3,12.3,43,0.00,,,0.00,WUHU216HW,2013-07-10 16:33:00,
2013-07-10 10:36:00,76.7,51.8,29.90,East,90,4.9,12.3,42,0.00,,,0.00,WUHU216HW,2013-07-10 16:36:00,
2013-07-10 10:37:00,76.9,52.0,29.90,ESE,113,5.4,12.3,42,0.00,,,0.00,WUHU216HW,2013-07-10 16:37:00,
2013-07-10 10:38:00,76.9,52.0,29.90,ESE,113,5.4,12.3,42,0.00,,,0.00,WUHU216HW,2013-07-10 16:38:00,
2013-07-10 10:41:00,77.0,51.6,29.90,SE,135,7.8,12.3,41,0.00,,,0.00,WUHU216HW,2013-07-10 16:41:00,
2013-07-10 10:42:00,77.2,51.8,29.90,ESE,113,9.2,12.3,41,0.00,,,0.00,WUHU216HW,2013-07-10 16:42:00,
2013-07-10 10:43:00,77.2,51.1,29.90,SE,135,6.9,12.1,40,0.00,,,0.00,WUHU216HW,2013-07-10 16:43:00,
2013-07-10 10:46:00,77.6,51.4,29.90,SE,135,6.3,11.0,40,0.00,,,0.00,WUHU216HW,2013-07-10 16:46:00,
2013-07-10 10:47:00,77.6,52.0,29.90,SE,135,6.3,11.0,41,0.00,,,0.00,WUHU216HW,2013-07-10 16:47:00,
2013-07-10 10:48:00,77.8,51.6,29.90,SE,135,8.9,11.4,40,0.00,,,0.00,WUHU216HW,2013-07-10 16:48:00,
2013-07-10 10:49:00,77.8,51.6,29.90,ESE,113,9.6,11.4,40,0.00,,,0.00,WUHU216HW,2013-07-10 16:49:00,
2013-07-10 10:52:00,78.1,51.9,29.90,ESE,113,3.6,11.4,40,0.00,,,0.00,WUHU216HW,2013-07-10 16:52:00,
2013-07-10 10:53:00,78.3,52.1,29.90,SE,135,7.6,11.4,40,0.00,,,0.00,WUHU216HW,2013-07-10 16:53:00,
2013-07-10 10:54:00,78.5,51.5,29.90,SSE,158,9.2,11.4,39,0.00,,,0.00,WUHU216HW,2013-07-10 16:54:00,
2013-07-10 10:57:00,78.7,52.4,29.90,SSE,158,6.7,11.4,40,0.00,,,0.00,WUHU216HW,2013-07-10 16:57:00,
2013-07-10 10:58:00,78.8,52.6,29.90,SSE,158,4.7,10.3,40,0.00,,,0.00,WUHU216HW,2013-07-10 16:58:00,
2013-07-10 10:59:00,78.8,52.6,29.90,SSE,158,4.7,10.3,40,0.00,,,0.00,WUHU216HW,2013-07-10 16:59:00,
2013-07-10 11:02:00,79.4,52.3,29.90,ESE,113,6.3,10.3,39,0.00,,,0.00,WUHU216HW,2013-07-10 17:02:00,
2013-07-10 11:03:00,79.6,52.5,29.90,ESE,113,6.0,9.2,39,0.00,,,0.00,WUHU216HW,2013-07-10 17:03:00,
2013-07-10 11:04:00,79.6,52.5,29.90,SE,135,8.7,9.2,39,0.00,,,0.00,WUHU216HW,2013-07-10 17:04:00,
2013-07-10 11:07:00,79.9,51.2,29.91,SE,135,11.9,12.3,37,0.00,,,0.00,WUHU216HW,2013-07-10 17:07:00,
2013-07-10 11:08:00,80.1,51.4,29.91,SE,135,8.5,12.3,37,0.00,,,0.00,WUHU216HW,2013-07-10 17:08:00,
2013-07-10 11:09:00,80.3,51.6,29.91,SE,135,6.7,12.3,37,0.00,,,0.00,WUHU216HW,2013-07-10 17:09:00,
2013-07-10 11:10:00,80.3,51.6,29.91,SSE,158,5.8,12.3,37,0.00,,,0.00,WUHU216HW,2013-07-10 17:10:00,
2013-07-10 11:12:00,80.6,51.8,29.91,ESE,113,7.6,12.3,37,0.00,,,0.00,WUHU216HW,2013-07-10 17:12:00,
2013-07-10 11:13:00,80.8,52.0,29.91,ESE,113,8.5,12.3,37,0.00,,,0.00,WUHU216HW,2013-07-10 17:13:00,
2013-07-10 11:14:00,80.8,50.5,29.91,ESE,113,12.1,12.3,35,0.00,,,0.00,WUHU216HW,2013-07-10 17:14:00,
2013-07-10 11:15:00,81.0,50.6,29.91,ESE,113,8.1,12.3,35,0.00,,,0.00,WUHU216HW,2013-07-10 17:15:00,
2013-07-10 11:17:00,81.2,50.8,29.91,SE,135,8.5,12.1,35,0.00,,,0.00,WUHU216HW,2013-07-10 17:17:00,
2013-07-10 11:18:00,81.4,51.0,29.91,ESE,113,10.1,12.1,35,0.00,,,0.00,WUHU216HW,2013-07-10 17:18:00,
2013-07-10 11:20:00,81.5,51.1,29.91,ESE,113,5.8,12.1,35,0.00,,,0.00,WUHU216HW,2013-07-10 17:20:00,
2013-07-10 11:23:00,82.1,50.8,29.90,East,90,6.7,12.1,34,0.00,,,0.00,WUHU216HW,2013-07-10 17:23:00,
2013-07-10 11:24:00,82.3,51.0,29.90,ESE,113,6.5,12.1,34,0.00,,,0.00,WUHU216HW,2013-07-10 17:24:00,
2013-07-10 11:25:00,82.4,51.0,29.91,ESE,113,8.5,10.1,34,0.00,,,0.00,WUHU216HW,2013-07-10 17:25:00,
2013-07-10 11:28:00,83.0,49.1,29.90,SE,135,10.1,10.1,31,0.00,,,0.00,WUHU216HW,2013-07-10 17:28:00,
2013-07-10 11:29:00,83.0,50.0,29.90,SSE,158,8.5,10.1,32,0.00,,,0.00,WUHU216HW,2013-07-10 17:29:00,
2013-07-10 11:30:00,83.2,50.1,29.90,ESE,113,6.9,11.4,32,0.00,,,0.00,WUHU216HW,2013-07-10 17:30:00,
2013-07-10 11:33:00,83.3,50.3,29.90,ESE,113,7.6,11.9,32,0.00,,,0.00,WUHU216HW,2013-07-10 17:33:00,
2013-07-10 11:34:00,83.5,50.4,29.90,East,90,8.5,11.9,32,0.00,,,0.00,WUHU216HW,2013-07-10 17:34:00,
2013-07-10 11:36:00,83.5,49.7,29.90,SE,135,5.4,11.9,31,0.00,,,0.00,WUHU216HW,2013-07-10 17:36:00,
2013-07-10 11:38:00,83.9,49.1,29.90,ESE,113,9.6,12.1,30,0.00,,,0.00,WUHU216HW,2013-07-10 17:38:00,
2013-07-10 11:39:00,83.9,49.1,29.90,ESE,113,9.6,12.1,30,0.00,,,0.00,WUHU216HW,2013-07-10 17:39:00,
2013-07-10 11:41:00,84.2,49.5,29.90,ESE,113,7.2,12.1,30,0.00,,,0.00,WUHU216HW,2013-07-10 17:41:00,
2013-07-10 11:44:00,84.2,49.5,29.90,ESE,113,11.9,12.1,30,0.00,,,0.00,WUHU216HW,2013-07-10 17:44:00,
2013-07-10 11:45:00,84.4,48.6,29.90,ESE,113,13.6,13.6,29,0.00,,,0.00,WUHU216HW,2013-07-10 17:45:00,
2013-07-10 11:46:00,84.4,49.7,29.90,ESE,113,7.2,13.6,30,0.00,,,0.00,WUHU216HW,2013-07-10 17:46:00,
2013-07-10 11:47:00,84.4,49.7,29.90,ESE,113,10.5,13.6,30,0.00,,,0.00,WUHU216HW,2013-07-10 17:47:00,
2013-07-10 11:49:00,84.6,49.9,29.90,East,90,10.5,13.6,30,0.00,,,0.00,WUHU216HW,2013-07-10 17:49:00,
2013-07-10 11:50:00,84.6,48.8,29.90,ESE,113,11.2,13.6,29,0.00,,,0.00,WUHU216HW,2013-07-10 17:50:00,
2013-07-10 11:51:00,84.8,49.0,29.90,ESE,113,11.6,13.9,29,0.00,,,0.00,WUHU216HW,2013-07-10 17:51:00,
2013-07-10 11:52:00,84.8,49.0,29.90,ESE,113,9.2,13.9,29,0.00,,,0.00,WUHU216HW,2013-07-10 17:52:00,
2013-07-10 11:54:00,85.0,49.1,29.90,ESE,113,8.3,13.9,29,0.00,,,0.00,WUHU216HW,2013-07-10 17:54:00,
2013-07-10 11:55:00,85.0,48.0,29.90,East,90,11.0,13.9,28,0.00,,,0.00,WUHU216HW,2013-07-10 17:55:00,
2013-07-10 11:56:00,84.8,49.0,29.90,ENE,68,10.5,14.3,29,0.00,,,0.00,WUHU216HW,2013-07-10 17:56:00,
2013-07-10 11:57:00,84.8,47.9,29.90,SE,135,8.9,14.3,28,0.00,,,0.00,WUHU216HW,2013-07-10 17:57:00,
2013-07-10 11:59:00,85.0,48.0,29.90,ESE,113,12.1,14.3,28,0.00,,,0.00,WUHU216HW,2013-07-10 17:59:00,
2013-07-10 12:00:00,85.0,49.1,29.89,ESE,113,11.0,14.3,29,0.00,,,0.00,WUHU216HW,2013-07-10 18:00:00,
2013-07-10 12:02:00,85.1,49.2,29.89,ESE,113,10.3,14.3,29,0.00,,,0.00,WUHU216HW,2013-07-10 18:02:00,
2013-07-10 12:04:00,85.3,48.3,29.89,ESE,113,13.6,14.3,28,0.00,,,0.00,WUHU216HW,2013-07-10 18:04:00,
2013-07-10 12:05:00,85.7,48.6,29.89,East,90,9.2,14.3,28,0.00,,,0.00,WUHU216HW,2013-07-10 18:05:00,
2013-07-10 12:07:00,85.9,48.8,29.89,ESE,113,15.4,15.4,28,0.00,,,0.00,WUHU216HW,2013-07-10 18:07:00,
2013-07-10 12:09:00,86.0,49.0,29.89,East,90,12.8,15.4,28,0.00,,,0.00,WUHU216HW,2013-07-10 18:09:00,
2013-07-10 12:10:00,86.0,49.0,29.89,ESE,113,11.4,15.4,28,0.00,,,0.00,WUHU216HW,2013-07-10 18:10:00,
2013-07-10 12:12:00,86.2,48.1,29.89,East,90,13.4,15.4,27,0.00,,,0.00,WUHU216HW,2013-07-10 18:12:00,
2013-07-10 12:15:00,86.2,49.2,29.88,ESE,113,13.2,15.4,28,0.00,,,0.00,WUHU216HW,2013-07-10 18:15:00,
2013-07-10 12:17:00,86.6,49.4,29.88,ESE,113,11.2,15.4,28,0.00,,,0.00,WUHU216HW,2013-07-10 18:17:00,
2013-07-10 12:18:00,86.8,49.6,29.88,ESE,113,10.3,14.1,28,0.00,,,0.00,WUHU216HW,2013-07-10 18:18:00,
2013-07-10 12:20:00,86.9,49.7,29.88,ESE,113,11.0,14.1,28,0.00,,,0.00,WUHU216HW,2013-07-10 18:20:00,
2013-07-10 12:22:00,87.3,51.0,29.88,ESE,113,11.4,14.1,29,0.00,,,0.00,WUHU216HW,2013-07-10 18:22:00,
2013-07-10 12:23:00,87.3,51.0,29.88,ESE,113,11.4,14.1,29,0.00,,,0.00,WUHU216HW,2013-07-10 18:23:00,
2013-07-10 12:25:00,87.7,50.3,29.88,ESE,113,12.5,13.9,28,0.00,,,0.00,WUHU216HW,2013-07-10 18:25:00,
2013-07-10 12:26:00,87.7,50.3,29.88,ESE,113,12.5,13.9,28,0.00,,,0.00,WUHU216HW,2013-07-10 18:26:00,
2013-07-10 12:27:00,87.8,50.4,29.88,SE,135,11.9,13.9,28,0.00,,,0.00,WUHU216HW,2013-07-10 18:27:00,
2013-07-10 12:28:00,87.8,50.4,29.88,SE,135,11.9,13.9,28,0.00,,,0.00,WUHU216HW,2013-07-10 18:28:00,
2013-07-10 12:30:00,88.2,49.7,29.88,SE,135,12.3,13.6,27,0.00,,,0.00,WUHU216HW,2013-07-10 18:30:00,
2013-07-10 12:31:00,88.2,48.6,29.88,SE,135,12.1,13.6,26,0.00,,,0.00,WUHU216HW,2013-07-10 18:31:00,
2013-07-10 12:32:00,88.2,48.6,29.88,ESE,113,10.5,13.6,26,0.00,,,0.00,WUHU216HW,2013-07-10 18:32:00,
2013-07-10 12:33:00,88.2,48.6,29.88,ESE,113,10.5,13.6,26,0.00,,,0.00,WUHU216HW,2013-07-10 18:33:00,
2013-07-10 12:35:00,88.2,48.6,29.88,ESE,113,10.5,12.5,26,0.00,,,0.00,WUHU216HW,2013-07-10 18:35:00,
2013-07-10 12:36:00,88.2,48.6,29.88,East,90,9.6,12.3,26,0.00,,,0.00,WUHU216HW,2013-07-10 18:36:00,
2013-07-10 12:37:00,88.2,48.6,29.88,East,90,9.6,12.3,26,0.00,,,0.00,WUHU216HW,2013-07-10 18:37:00,
2013-07-10 12:39:00,88.2,47.5,29.87,ESE,113,12.1,13.6,25,0.00,,,0.00,WUHU216HW,2013-07-10 18:39:00,
2013-07-10 12:40:00,88.2,48.6,29.88,East,90,11.2,13.6,26,0.00,,,0.00,WUHU216HW,2013-07-10 18:40:00,
2013-07-10 12:42:00,88.0,48.5,29.87,ESE,113,12.1,13.6,26,0.00,,,0.00,WUHU216HW,2013-07-10 18:42:00,
2013-07-10 12:44:00,88.0,48.5,29.87,East,90,11.4,13.6,26,0.00,,,0.00,WUHU216HW,2013-07-10 18:44:00,
2013-07-10 12:46:00,88.0,48.5,29.87,East,90,11.4,13.6,26,0.00,,,0.00,WUHU216HW,2013-07-10 18:46:00,
2013-07-10 12:47:00,87.7,49.2,29.87,East,90,15.7,16.3,27,0.00,,,0.00,WUHU216HW,2013-07-10 18:47:00,
2013-07-10 12:48:00,87.7,50.3,29.87,East,90,15.2,16.3,28,0.00,,,0.00,WUHU216HW,2013-07-10 18:48:00,
2013-07-10 12:49:00,87.8,49.4,29.87,East,90,12.3,16.3,27,0.00,,,0.00,WUHU216HW,2013-07-10 18:49:00,
2013-07-10 12:51:00,88.0,47.4,29.87,East,90,12.8,16.3,25,0.00,,,0.00,WUHU216HW,2013-07-10 18:51:00,
2013-07-10 12:52:00,88.0,47.4,29.87,East,90,12.8,16.3,25,0.00,,,0.00,WUHU216HW,2013-07-10 18:52:00,
2013-07-10 12:53:00,88.2,47.5,29.87,East,90,15.7,16.3,25,0.00,,,0.00,WUHU216HW,2013-07-10 18:53:00,
2013-07-10 12:55:00,88.6,46.8,29.87,SE,135,12.8,16.3,24,0.00,,,0.00,WUHU216HW,2013-07-10 18:55:00,
2013-07-10 12:56:00,88.6,46.8,29.87,SE,135,12.8,16.3,24,0.00,,,0.00,WUHU216HW,2013-07-10 18:56:00,
2013-07-10 12:57:00,89.3,47.4,29.86,ESE,113,9.8,16.3,24,0.00,,,0.00,WUHU216HW,2013-07-10 18:57:00,
2013-07-10 12:58:00,89.5,46.4,29.87,ESE,113,13.0,16.3,23,0.00,,,0.00,WUHU216HW,2013-07-10 18:58:00,
2013-07-10 12:59:00,89.5,46.4,29.87,ESE,113,13.0,16.3,23,0.00,,,0.00,WUHU216HW,2013-07-10 18:59:00,
2013-07-10 13:00:00,89.6,46.6,29.87,ESE,113,15.4,15.7,23,0.00,,,0.00,WUHU216HW,2013-07-10 19:00:00,
2013-07-10 13:01:00,90.0,46.9,29.86,ESE,113,13.4,15.7,23,0.00,,,0.00,WUHU216HW,2013-07-10 19:01:00,
2013-07-10 13:02:00,90.0,45.8,29.86,SSE,158,14.8,15.7,22,0.00,,,0.00,WUHU216HW,2013-07-10 19:02:00,
2013-07-10 13:03:00,90.0,45.8,29.86,SSE,158,14.8,15.4,22,0.00,,,0.00,WUHU216HW,2013-07-10 19:03:00,
2013-07-10 13:04:00,90.4,46.2,29.86,ESE,113,15.9,15.9,22,0.00,,,0.00,WUHU216HW,2013-07-10 19:04:00,
2013-07-10 13:05:00,90.4,46.2,29.86,SE,135,14.8,16.3,22,0.00,,,0.00,WUHU216HW,2013-07-10 19:05:00,
2013-07-10 13:07:00,90.5,46.3,29.86,East,90,11.9,16.3,22,0.00,,,0.00,WUHU216HW,2013-07-10 19:07:00,
2013-07-10 13:08:00,90.5,46.3,29.86,East,90,11.9,16.3,22,0.00,,,0.00,WUHU216HW,2013-07-10 19:08:00,
2013-07-10 13:09:00,90.9,47.7,29.86,ESE,113,13.6,16.3,23,0.00,,,0.00,WUHU216HW,2013-07-10 19:09:00,
2013-07-10 13:10:00,90.9,47.7,29.86,ESE,113,13.6,16.3,23,0.00,,,0.00,WUHU216HW,2013-07-10 19:10:00,
2013-07-10 13:12:00,90.9,47.7,29.86,ESE,113,13.6,16.3,23,0.00,,,0.00,WUHU216HW,2013-07-10 19:12:00,
2013-07-10 13:13:00,91.3,44.6,29.86,SE,135,11.0,16.3,20,0.00,,,0.00,WUHU216HW,2013-07-10 19:13:00,
2013-07-10 13:14:00,91.3,42.9,29.86,SE,135,12.1,16.3,19,0.00,,,0.00,WUHU216HW,2013-07-10 19:14:00,
2013-07-10 13:15:00,91.3,45.8,29.85,East,90,11.0,14.8,21,0.00,,,0.00,WUHU216HW,2013-07-10 19:15:00,
2013-07-10 13:17:00,91.4,45.9,29.85,East,90,13.4,13.6,21,0.00,,,0.00,WUHU216HW,2013-07-10 19:17:00,
2013-07-10 13:19:00,91.6,43.2,29.85,SE,135,15.2,15.2,19,0.00,,,0.00,WUHU216HW,2013-07-10 19:19:00,
2013-07-10 13:21:00,92.2,48.7,29.85,ESE,113,11.2,15.2,23,0.00,,,0.00,WUHU216HW,2013-07-10 19:21:00,
2013-07-10 13:22:00,92.3,46.6,29.85,East,90,13.4,16.6,21,0.00,,,0.00,WUHU216HW,2013-07-10 19:22:00,
2013-07-10 13:24:00,92.3,48.9,29.85,ESE,113,16.8,16.8,23,0.00,,,0.00,WUHU216HW,2013-07-10 19:24:00,
2013-07-10 13:25:00,92.3,48.9,29.85,East,90,12.8,16.8,23,0.00,,,0.00,WUHU216HW,2013-07-10 19:25:00,
2013-07-10 13:26:00,92.3,48.9,29.85,ESE,113,12.1,16.8,23,0.00,,,0.00,WUHU216HW,2013-07-10 19:26:00,
2013-07-10 13:28:00,92.3,48.9,29.85,ESE,113,12.1,16.8,23,0.00,,,0.00,WUHU216HW,2013-07-10 19:28:00,
2013-07-10 13:29:00,92.5,46.8,29.85,East,90,13.6,16.8,21,0.00,,,0.00,WUHU216HW,2013-07-10 19:29:00,
2013-07-10 13:30:00,92.5,46.8,29.85,East,90,13.6,16.8,21,0.00,,,0.00,WUHU216HW,2013-07-10 19:30:00,
2013-07-10 13:31:00,92.5,42.2,29.85,SE,135,13.2,16.8,18,0.00,,,0.00,WUHU216HW,2013-07-10 19:31:00,
2013-07-10 13:34:00,92.7,44.1,29.85,SE,135,13.0,16.8,19,0.00,,,0.00,WUHU216HW,2013-07-10 19:34:00,
2013-07-10 13:35:00,92.9,42.5,29.85,SE,135,10.7,15.7,18,0.00,,,0.00,WUHU216HW,2013-07-10 19:35:00,
2013-07-10 13:36:00,92.9,44.2,29.85,East,90,12.8,15.4,19,0.00,,,0.00,WUHU216HW,2013-07-10 19:36:00,
2013-07-10 13:39:00,93.1,44.4,29.85,ESE,113,13.4,18.3,19,0.00,,,0.00,WUHU216HW,2013-07-10 19:39:00,
2013-07-10 13:40:00,93.1,44.4,29.85,ESE,113,13.4,18.3,19,0.00,,,0.00,WUHU216HW,2013-07-10 19:40:00,
2013-07-10 13:41:00,93.1,42.6,29.85,ESE,113,13.9,18.3,18,0.00,,,0.00,WUHU216HW,2013-07-10 19:41:00,
2013-07-10 13:44:00,93.2,42.8,29.85,ESE,113,12.8,18.3,18,0.00,,,0.00,WUHU216HW,2013-07-10 19:44:00,
2013-07-10 13:45:00,93.2,42.8,29.84,ESE,113,12.8,18.3,18,0.00,,,0.00,WUHU216HW,2013-07-10 19:45:00,
2013-07-10 13:47:00,93.6,43.0,29.84,ESE,113,10.5,18.3,18,0.00,,,0.00,WUHU216HW,2013-07-10 19:47:00,
2013-07-10 13:50:00,93.8,39.6,29.84,SE,135,13.4,15.7,16,0.00,,,0.00,WUHU216HW,2013-07-10 19:50:00,
2013-07-10 13:51:00,93.6,41.2,29.84,ESE,113,13.6,15.7,17,0.00,,,0.00,WUHU216HW,2013-07-10 19:51:00,
2013-07-10 13:52:00,93.2,41.0,29.84,East,90,10.5,15.7,17,0.00,,,0.00,WUHU216HW,2013-07-10 19:52:00,
2013-07-10 13:55:00,92.9,39.0,29.84,SE,135,15.0,15.0,16,0.00,,,0.00,WUHU216HW,2013-07-10 19:55:00,
2013-07-10 13:56:00,92.9,39.0,29.84,SE,135,15.0,15.0,16,0.00,,,0.00,WUHU216HW,2013-07-10 19:56:00,
2013-07-10 13:57:00,92.5,40.4,29.84,SE,135,9.6,15.0,17,0.00,,,0.00,WUHU216HW,2013-07-10 19:57:00,
2013-07-10 14:00:00,92.2,41.9,29.84,SE,135,12.3,15.0,18,0.00,,,0.00,WUHU216HW,2013-07-10 20:00:00,
2013-07-10 14:01:00,92.2,41.9,29.84,SE,135,11.6,15.0,18,0.00,,,0.00,WUHU216HW,2013-07-10 20:01:00,
2013-07-10 14:02:00,92.3,42.0,29.84,SE,135,16.1,16.1,18,0.00,,,0.00,WUHU216HW,2013-07-10 20:02:00,
2013-07-10 14:05:00,92.5,40.4,29.84,ESE,113,15.4,16.6,17,0.00,,,0.00,WUHU216HW,2013-07-10 20:05:00,
2013-07-10 14:06:00,92.7,40.6,29.84,ESE,113,14.5,16.6,17,0.00,,,0.00,WUHU216HW,2013-07-10 20:06:00,
2013-07-10 14:07:00,93.1,42.6,29.84,ESE,113,13.0,17.4,18,0.00,,,0.00,WUHU216HW,2013-07-10 20:07:00,
2013-07-10 14:11:00,93.2,41.0,29.84,ESE,113,13.4,17.4,17,0.00,,,0.00,WUHU216HW,2013-07-10 20:11:00,
2013-07-10 14:12:00,93.2,42.8,29.83,East,90,15.7,18.1,18,0.00,,,0.00,WUHU216HW,2013-07-10 20:12:00,
2013-07-10 14:16:00,93.4,39.3,29.83,ESE,113,14.3,18.1,16,0.00,,,0.00,WUHU216HW,2013-07-10 20:16:00,
2013-07-10 14:17:00,93.4,39.3,29.83,ESE,113,9.2,18.1,16,0.00,,,0.00,WUHU216HW,2013-07-10 20:17:00,
2013-07-10 14:18:00,93.2,41.0,29.83,ESE,113,13.6,18.1,17,0.00,,,0.00,WUHU216HW,2013-07-10 20:18:00,
2013-07-10 14:21:00,92.5,42.2,29.83,ESE,113,9.6,18.1,18,0.00,,,0.00,WUHU216HW,2013-07-10 20:21:00,
2013-07-10 14:22:00,92.3,42.0,29.83,East,90,10.3,18.1,18,0.00,,,0.00,WUHU216HW,2013-07-10 20:22:00,
2013-07-10 14:23:00,92.2,41.9,29.83,East,90,11.2,15.4,18,0.00,,,0.00,WUHU216HW,2013-07-10 20:23:00,
2013-07-10 14:27:00,91.6,39.7,29.83,ESE,113,11.4,15.4,17,0.00,,,0.00,WUHU216HW,2013-07-10 20:27:00,
2013-07-10 14:28:00,91.6,41.5,29.83,ESE,113,10.5,15.4,18,0.00,,,0.00,WUHU216HW,2013-07-10 20:28:00,
2013-07-10 14:32:00,92.2,40.2,29.83,East,90,8.3,15.4,17,0.00,,,0.00,WUHU216HW,2013-07-10 20:32:00,
2013-07-10 14:33:00,92.3,40.3,29.83,ESE,113,10.7,15.4,17,0.00,,,0.00,WUHU216HW,2013-07-10 20:33:00,
2013-07-10 14:37:00,92.3,38.5,29.83,East,90,15.0,15.9,16,0.00,,,0.00,WUHU216HW,2013-07-10 20:37:00,
2013-07-10 14:38:00,92.3,40.3,29.82,ESE,113,13.6,15.9,17,0.00,,,0.00,WUHU216HW,2013-07-10 20:38:00,
2013-07-10 14:42:00,92.3,38.5,29.82,ESE,113,11.6,16.1,16,0.00,,,0.00,WUHU216HW,2013-07-10 20:42:00,
2013-07-10 14:43:00,92.2,38.3,29.82,East,90,15.4,16.1,16,0.00,,,0.00,WUHU216HW,2013-07-10 20:43:00,
2013-07-10 14:47:00,91.6,38.0,29.82,East,90,12.8,16.1,16,0.00,,,0.00,WUHU216HW,2013-07-10 20:47:00,
2013-07-10 14:48:00,91.4,37.8,29.82,ESE,113,14.8,16.1,16,0.00,,,0.00,WUHU216HW,2013-07-10 20:48:00,
2013-07-10 14:52:00,90.7,37.3,29.82,ESE,113,10.1,15.4,16,0.00,,,0.00,WUHU216HW,2013-07-10 20:52:00,
2013-07-10 14:53:00,90.7,35.6,29.82,ESE,113,11.0,15.4,15,0.00,,,0.00,WUHU216HW,2013-07-10 20:53:00,
2013-07-10 14:54:00,90.5,35.4,29.82,ESE,113,9.8,15.0,15,0.00,,,0.00,WUHU216HW,2013-07-10 20:54:00,
2013-07-10 14:57:00,90.4,37.0,29.82,East,90,15.0,15.0,16,0.00,,,0.00,WUHU216HW,2013-07-10 20:57:00,
2013-07-10 14:58:00,90.4,35.2,29.82,ESE,113,13.6,15.0,15,0.00,,,0.00,WUHU216HW,2013-07-10 20:58:00,
2013-07-10 14:59:00,90.4,35.2,29.82,ESE,113,14.3,15.0,15,0.00,,,0.00,WUHU216HW,2013-07-10 20:59:00,
2013-07-10 15:02:00,90.5,37.1,29.82,ESE,113,11.2,15.0,16,0.00,,,0.00,WUHU216HW,2013-07-10 21:02:00,
2013-07-10 15:03:00,90.5,35.4,29.82,ESE,113,11.4,15.0,15,0.00,,,0.00,WUHU216HW,2013-07-10 21:03:00,
2013-07-10 15:04:00,90.5,35.4,29.82,ESE,113,11.4,15.0,15,0.00,,,0.00,WUHU216HW,2013-07-10 21:04:00,
2013-07-10 15:07:00,90.5,35.4,29.82,ESE,113,9.8,14.3,15,0.00,,,0.00,WUHU216HW,2013-07-10 21:07:00,
2013-07-10 15:08:00,90.5,35.4,29.82,ESE,113,8.3,14.3,15,0.00,,,0.00,WUHU216HW,2013-07-10 21:08:00,
2013-07-10 15:09:00,90.5,35.4,29.81,ESE,113,10.3,14.3,15,0.00,,,0.00,WUHU216HW,2013-07-10 21:09:00,
2013-07-10 15:10:00,90.5,35.4,29.81,ENE,68,11.4,12.8,15,0.00,,,0.00,WUHU216HW,2013-07-10 21:10:00,
2013-07-10 15:12:00,90.7,35.6,29.81,East,90,11.6,14.3,15,0.00,,,0.00,WUHU216HW,2013-07-10 21:12:00,
2013-07-10 15:13:00,90.7,35.6,29.81,ENE,68,12.1,14.3,15,0.00,,,0.00,WUHU216HW,2013-07-10 21:13:00,
2013-07-10 15:14:00,90.5,35.4,29.81,East,90,12.8,14.3,15,0.00,,,0.00,WUHU216HW,2013-07-10 21:14:00,
2013-07-10 15:15:00,90.5,35.4,29.81,ESE,113,9.8,14.3,15,0.00,,,0.00,WUHU216HW,2013-07-10 21:15:00,
2013-07-10 15:18:00,90.4,35.2,29.81,East,90,9.4,14.3,15,0.00,,,0.00,WUHU216HW,2013-07-10 21:18:00,
2013-07-10 15:19:00,90.4,35.2,29.81,ENE,68,11.9,14.3,15,0.00,,,0.00,WUHU216HW,2013-07-10 21:19:00,
2013-07-10 15:20:00,90.4,35.2,29.81,East,90,8.1,14.3,15,0.00,,,0.00,WUHU216HW,2013-07-10 21:20:00,
2013-07-10 15:23:00,90.7,35.6,29.80,NE,45,11.4,14.3,15,0.00,,,0.00,WUHU216HW,2013-07-10 21:23:00,
2013-07-10 15:25:00,91.1,35.8,29.81,East,90,13.0,14.3,15,0.00,,,0.00,WUHU216HW,2013-07-10 21:25:00,
2013-07-10 15:28:00,91.3,35.9,29.81,East,90,9.2,14.3,15,0.00,,,0.00,WUHU216HW,2013-07-10 21:28:00,
2013-07-10 15:30:00,91.3,35.9,29.81,East,90,10.5,14.3,15,0.00,,,0.00,WUHU216HW,2013-07-10 21:30:00,
2013-07-10 15:33:00,91.3,35.9,29.80,East,90,11.4,13.9,15,0.00,,,0.00,WUHU216HW,2013-07-10 21:33:00,
2013-07-10 15:34:00,91.3,35.9,29.80,East,90,11.4,13.9,15,0.00,,,0.00,WUHU216HW,2013-07-10 21:34:00,
2013-07-10 15:35:00,92.0,36.5,29.80,ENE,68,9.2,13.9,15,0.00,,,0.00,WUHU216HW,2013-07-10 21:35:00,
2013-07-10 15:36:00,92.2,36.6,29.80,East,90,8.5,13.9,15,0.00,,,0.00,WUHU216HW,2013-07-10 21:36:00,
2013-07-10 15:38:00,93.1,33.8,29.80,East,90,8.1,15.0,13,0.00,,,0.00,WUHU216HW,2013-07-10 21:38:00,
2013-07-10 15:39:00,93.1,33.8,29.80,ENE,68,11.0,15.0,13,0.00,,,0.00,WUHU216HW,2013-07-10 21:39:00,
2013-07-10 15:40:00,92.9,33.7,29.80,SE,135,7.6,15.0,13,0.00,,,0.00,WUHU216HW,2013-07-10 21:40:00,
2013-07-10 15:41:00,92.7,33.5,29.80,ENE,68,7.6,15.0,13,0.00,,,0.00,WUHU216HW,2013-07-10 21:41:00,
2013-07-10 15:43:00,92.2,33.1,29.80,ESE,113,5.6,15.0,13,0.00,,,0.00,WUHU216HW,2013-07-10 21:43:00,
2013-07-10 15:44:00,92.2,33.1,29.80,SE,135,7.8,15.0,13,0.00,,,0.00,WUHU216HW,2013-07-10 21:44:00,
2013-07-10 15:45:00,91.8,32.9,29.80,ESE,113,9.8,15.0,13,0.00,,,0.00,WUHU216HW,2013-07-10 21:45:00,
2013-07-10 15:46:00,91.8,32.9,29.80,ENE,68,11.2,15.0,13,0.00,,,0.00,WUHU216HW,2013-07-10 21:46:00,
2013-07-10 15:48:00,91.6,36.3,29.79,East,90,8.9,11.2,15,0.00,,,0.00,WUHU216HW,2013-07-10 21:48:00,
2013-07-10 15:49:00,91.4,36.1,29.79,East,90,8.9,11.2,15,0.00,,,0.00,WUHU216HW,2013-07-10 21:49:00,
2013-07-10 15:51:00,91.4,36.1,29.79,ESE,113,8.1,11.2,15,0.00,,,0.00,WUHU216HW,2013-07-10 21:51:00,
2013-07-10 15:53:00,91.3,35.9,29.79,ESE,113,9.8,13.4,15,0.00,,,0.00,WUHU216HW,2013-07-10 21:53:00,
2013-07-10 15:54:00,91.1,35.8,29.79,ESE,113,9.2,13.4,15,0.00,,,0.00,WUHU216HW,2013-07-10 21:54:00,
2013-07-10 15:55:00,91.1,37.5,29.79,East,90,9.6,13.4,16,0.00,,,0.00,WUHU216HW,2013-07-10 21:55:00,
2013-07-10 15:56:00,91.3,37.7,29.79,East,90,7.8,13.4,16,0.00,,,0.00,WUHU216HW,2013-07-10 21:56:00,
2013-07-10 15:59:00,92.0,33.0,29.79,SSE,158,9.6,13.4,13,0.00,,,0.00,WUHU216HW,2013-07-10 21:59:00,
2013-07-10 16:00:00,92.5,33.4,29.79,SE,135,10.3,13.4,13,0.00,,,0.00,WUHU216HW,2013-07-10 22:00:00,
2013-07-10 16:01:00,93.1,33.8,29.79,ESE,113,12.1,13.4,13,0.00,,,0.00,WUHU216HW,2013-07-10 22:01:00,
2013-07-10 16:04:00,94.0,32.8,29.79,SE,135,11.4,13.0,12,0.00,,,0.00,WUHU216HW,2013-07-10 22:04:00,
2013-07-10 16:05:00,94.3,33.0,29.79,SE,135,9.2,13.0,12,0.00,,,0.00,WUHU216HW,2013-07-10 22:05:00,
2013-07-10 16:07:00,94.7,33.3,29.79,ESE,113,13.4,13.4,12,0.00,,,0.00,WUHU216HW,2013-07-10 22:07:00,
2013-07-10 16:09:00,95.0,31.9,29.79,East,90,10.7,13.4,11,0.00,,,0.00,WUHU216HW,2013-07-10 22:09:00,
2013-07-10 16:11:00,95.2,32.0,29.78,ESE,113,10.5,13.4,11,0.00,,,0.00,WUHU216HW,2013-07-10 22:11:00,
2013-07-10 16:12:00,95.2,32.0,29.78,ESE,113,11.4,13.4,11,0.00,,,0.00,WUHU216HW,2013-07-10 22:12:00,
2013-07-10 16:14:00,94.9,31.7,29.78,East,90,9.8,13.4,11,0.00,,,0.00,WUHU216HW,2013-07-10 22:14:00,
2013-07-10 16:16:00,94.5,33.1,29.78,ESE,113,8.5,13.4,12,0.00,,,0.00,WUHU216HW,2013-07-10 22:16:00,
2013-07-10 16:17:00,94.5,33.1,29.78,ESE,113,9.8,13.4,12,0.00,,,0.00,WUHU216HW,2013-07-10 22:17:00,
2013-07-10 16:19:00,94.3,33.0,29.78,SE,135,10.5,13.4,12,0.00,,,0.00,WUHU216HW,2013-07-10 22:19:00,
2013-07-10 16:22:00,94.3,31.2,29.78,SE,135,11.9,14.8,11,0.00,,,0.00,WUHU216HW,2013-07-10 22:22:00,
2013-07-10 16:23:00,94.5,33.1,29.78,SE,135,6.3,14.8,12,0.00,,,0.00,WUHU216HW,2013-07-10 22:23:00,
2013-07-10 16:24:00,94.9,33.5,29.78,ESE,113,6.9,14.8,12,0.00,,,0.00,WUHU216HW,2013-07-10 22:24:00,
2013-07-10 16:25:00,94.9,33.5,29.78,ESE,113,6.9,14.8,12,0.00,,,0.00,WUHU216HW,2013-07-10 22:25:00,
2013-07-10 16:27:00,95.2,33.8,29.78,East,90,9.8,14.8,12,0.00,,,0.00,WUHU216HW,2013-07-10 22:27:00,
2013-07-10 16:28:00,95.6,34.0,29.77,ESE,113,7.4,14.8,12,0.00,,,0.00,WUHU216HW,2013-07-10 22:28:00,
2013-07-10 16:29:00,95.8,34.1,29.77,East,90,7.6,14.8,12,0.00,,,0.00,WUHU216HW,2013-07-10 22:29:00,
2013-07-10 16:30:00,95.8,34.1,29.77,SE,135,5.6,12.8,12,0.00,,,0.00,WUHU216HW,2013-07-10 22:30:00,
2013-07-10 16:32:00,95.9,34.3,29.77,ESE,113,7.8,12.8,12,0.00,,,0.00,WUHU216HW,2013-07-10 22:32:00,
2013-07-10 16:33:00,96.3,34.6,29.77,East,90,10.3,12.8,12,0.00,,,0.00,WUHU216HW,2013-07-10 22:33:00,
2013-07-10 16:35:00,96.5,32.9,29.77,ENE,68,4.7,12.8,11,0.00,,,0.00,WUHU216HW,2013-07-10 22:35:00,
2013-07-10 16:37:00,96.1,32.6,29.77,ENE,68,8.5,12.3,11,0.00,,,0.00,WUHU216HW,2013-07-10 22:37:00,
2013-07-10 16:38:00,96.1,32.6,29.77,ESE,113,10.3,12.3,11,0.00,,,0.00,WUHU216HW,2013-07-10 22:38:00,
2013-07-10 16:40:00,95.6,32.2,29.77,East,90,9.8,13.2,11,0.00,,,0.00,WUHU216HW,2013-07-10 22:40:00,
2013-07-10 16:42:00,94.9,31.7,29.77,ESE,113,8.9,13.2,11,0.00,,,0.00,WUHU216HW,2013-07-10 22:42:00,
2013-07-10 16:43:00,94.9,31.7,29.77,ESE,113,8.7,13.2,11,0.00,,,0.00,WUHU216HW,2013-07-10 22:43:00,
2013-07-10 16:45:00,94.3,31.2,29.77,ESE,113,8.3,13.2,11,0.00,,,0.00,WUHU216HW,2013-07-10 22:45:00,
2013-07-10 16:48:00,93.6,32.4,29.76,SSE,158,8.3,13.2,12,0.00,,,0.00,WUHU216HW,2013-07-10 22:48:00,
2013-07-10 16:50:00,93.2,30.4,29.77,ENE,68,3.8,13.2,11,0.00,,,0.00,WUHU216HW,2013-07-10 22:50:00,
2013-07-10 16:51:00,93.2,30.4,29.77,ENE,68,4.5,13.2,11,0.00,,,0.00,WUHU216HW,2013-07-10 22:51:00,
2013-07-10 16:53:00,93.2,32.1,29.76,ENE,68,11.9,13.2,12,0.00,,,0.00,WUHU216HW,2013-07-10 22:53:00,
2013-07-10 16:54:00,93.4,32.3,29.76,East,90,8.1,13.2,12,0.00,,,0.00,WUHU216HW,2013-07-10 22:54:00,
2013-07-10 16:56:00,93.8,32.6,29.76,ESE,113,11.4,13.2,12,0.00,,,0.00,WUHU216HW,2013-07-10 22:56:00,
2013-07-10 16:58:00,94.5,33.1,29.76,ENE,68,6.3,11.9,12,0.00,,,0.00,WUHU216HW,2013-07-10 22:58:00,
2013-07-10 16:59:00,94.9,31.7,29.76,NE,45,6.0,11.9,11,0.00,,,0.00,WUHU216HW,2013-07-10 22:59:00,
2013-07-10 17:01:00,95.2,32.0,29.74,WSW,248,9.6,11.9,11,0.00,,,0.00,WUHU216HW,2013-07-10 23:01:00,
2013-07-10 17:03:00,95.6,32.2,29.74,SE,135,8.9,11.9,11,0.00,,,0.00,WUHU216HW,2013-07-10 23:03:00,
2013-07-10 17:04:00,95.8,32.3,29.74,SW,225,22.8,22.8,11,0.00,,,0.00,WUHU216HW,2013-07-10 23:04:00,
2013-07-10 17:06:00,95.8,30.6,29.74,West,270,23.5,27.3,10,0.00,,,0.00,WUHU216HW,2013-07-10 23:06:00,
2013-07-10 17:08:00,95.2,30.2,29.75,West,270,13.0,27.3,10,0.00,,,0.00,WUHU216HW,2013-07-10 23:08:00,
2013-07-10 17:09:00,94.9,29.9,29.75,West,270,12.1,27.3,10,0.00,,,0.00,WUHU216HW,2013-07-10 23:09:00,
2013-07-10 17:11:00,94.3,31.2,29.75,West,270,19.7,27.3,11,0.00,,,0.00,WUHU216HW,2013-07-10 23:11:00,
2013-07-10 17:13:00,94.0,31.0,29.75,WSW,248,15.0,27.3,11,0.00,,,0.00,WUHU216HW,2013-07-10 23:13:00,
2013-07-10 17:14:00,94.0,31.0,29.75,WNW,293,9.2,27.3,11,0.00,,,0.00,WUHU216HW,2013-07-10 23:14:00,
2013-07-10 17:16:00,93.8,30.8,29.75,NNW,338,4.3,19.9,11,0.00,,,0.00,WUHU216HW,2013-07-10 23:16:00,
2013-07-10 17:17:00,94.0,31.0,29.75,NW,315,6.3,19.9,11,0.00,,,0.00,WUHU216HW,2013-07-10 23:17:00,
2013-07-10 17:18:00,93.8,29.1,29.75,WNW,293,12.3,19.9,10,0.00,,,0.00,WUHU216HW,2013-07-10 23:18:00,
2013-07-10 17:19:00,94.0,29.2,29.75,WNW,293,10.5,19.9,10,0.00,,,0.00,WUHU216HW,2013-07-10 23:19:00,
2013-07-10 17:21:00,93.8,30.8,29.75,West,270,6.3,18.3,11,0.00,,,0.00,WUHU216HW,2013-07-10 23:21:00,
2013-07-10 17:22:00,93.8,30.8,29.75,West,270,6.3,18.3,11,0.00,,,0.00,WUHU216HW,2013-07-10 23:22:00,
2013-07-10 17:23:00,94.0,29.2,29.75,WSW,248,9.2,15.0,10,0.00,,,0.00,WUHU216HW,2013-07-10 23:23:00,
2013-07-10 17:24:00,94.1,29.3,29.75,West,270,9.4,12.3,10,0.00,,,0.00,WUHU216HW,2013-07-10 23:24:00,
2013-07-10 17:27:00,94.3,31.2,29.74,SW,225,3.4,12.3,11,0.00,,,0.00,WUHU216HW,2013-07-10 23:27:00,
2013-07-10 17:28:00,94.7,31.5,29.74,WSW,248,5.6,11.4,11,0.00,,,0.00,WUHU216HW,2013-07-10 23:28:00,
2013-07-10 17:29:00,95.0,31.9,29.74,SSW,203,4.3,10.5,11,0.00,,,0.00,WUHU216HW,2013-07-10 23:29:00,
2013-07-10 17:30:00,95.2,32.0,29.74,SW,225,4.7,9.8,11,0.00,,,0.00,WUHU216HW,2013-07-10 23:30:00,
2013-07-10 17:32:00,95.9,32.5,29.74,West,270,4.7,9.8,11,0.00,,,0.00,WUHU216HW,2013-07-10 23:32:00,
2013-07-10 17:34:00,96.3,31.0,29.74,NW,315,6.9,9.4,10,0.00,,,0.00,WUHU216HW,2013-07-10 23:34:00,
2013-07-10 17:35:00,96.3,31.0,29.74,WNW,293,4.9,8.1,8,0.00,,,0.00,WUHU216HW,2013-07-10 23:35:00,
2013-07-10 17:37:00,96.3,31.0,29.74,NW,315,3.1,8.1,10,0.00,,,0.00,WUHU216HW,2013-07-10 23:37:00,
2013-07-10 17:39:00,96.3,31.0,29.74,WNW,293,2.9,8.1,10,0.00,,,0.00,WUHU216HW,2013-07-10 23:39:00,
2013-07-10 17:40:00,96.5,31.1,29.74,West,270,3.4,8.1,10,0.00,,,0.00,WUHU216HW,2013-07-10 23:40:00,
2013-07-10 17:42:00,96.5,31.1,29.74,West,270,1.6,8.1,10,0.00,,,0.00,WUHU216HW,2013-07-10 23:42:00,
2013-07-10 17:44:00,96.5,32.9,29.74,SE,135,2.0,8.1,11,0.00,,,0.00,WUHU216HW,2013-07-10 23:44:00,
2013-07-10 17:45:00,96.5,32.9,29.74,SE,135,2.0,4.9,11,0.00,,,0.00,WUHU216HW,2013-07-10 23:45:00,
2013-07-10 17:47:00,96.7,33.0,29.74,SSE,158,9.2,9.2,11,0.00,,,0.00,WUHU216HW,2013-07-10 23:47:00,
2013-07-10 17:48:00,96.7,33.0,29.74,SSE,158,10.5,10.5,11,0.00,,,0.00,WUHU216HW,2013-07-10 23:48:00,
2013-07-10 17:49:00,96.5,34.7,29.74,SE,135,6.9,10.5,12,0.00,,,0.00,WUHU216HW,2013-07-10 23:49:00,
2013-07-10 17:50:00,96.5,32.9,29.74,SE,135,6.7,10.5,11,0.00,,,0.00,WUHU216HW,2013-07-10 23:50:00,
2013-07-10 17:51:00,96.3,32.8,29.74,SE,135,5.4,10.5,11,0.00,,,0.00,WUHU216HW,2013-07-10 23:51:00,
2013-07-10 17:52:00,96.1,32.6,29.74,ESE,113,7.2,10.5,11,0.00,,,0.00,WUHU216HW,2013-07-10 23:52:00,
2013-07-10 17:53:00,96.1,32.6,29.74,SSE,158,9.4,10.5,11,0.00,,,0.00,WUHU216HW,2013-07-10 23:53:00,
2013-07-10 17:54:00,95.9,32.5,29.74,SSE,158,7.4,10.5,11,0.00,,,0.00,WUHU216HW,2013-07-10 23:54:00,
2013-07-10 17:56:00,95.6,32.2,29.74,East,90,4.7,10.5,11,0.00,,,0.00,WUHU216HW,2013-07-10 23:56:00,
2013-07-10 17:57:00,95.4,33.8,29.73,SE,135,5.1,10.5,12,0.00,,,0.00,WUHU216HW,2013-07-10 23:57:00,
2013-07-10 17:58:00,95.4,32.0,29.74,SSE,158,5.8,9.8,11,0.00,,,0.00,WUHU216HW,2013-07-10 23:58:00,
2013-07-10 17:59:00,95.2,33.8,29.74,SSE,158,4.0,9.8,12,0.00,,,0.00,WUHU216HW,2013-07-10 23:59:00,
2013-07-10 18:01:00,95.0,33.6,29.74,SSE,158,6.0,9.4,12,0.00,,,0.00,WUHU216HW,2013-07-11 00:01:00,
2013-07-10 18:02:00,94.9,33.5,29.74,South,180,6.9,9.4,12,0.00,,,0.00,WUHU216HW,2013-07-11 00:02:00,
2013-07-10 18:04:00,94.7,33.3,29.74,SSE,158,6.9,8.1,12,0.00,,,0.00,WUHU216HW,2013-07-11 00:04:00,
2013-07-10 18:06:00,94.5,33.1,29.74,South,180,5.4,8.1,12,0.00,,,0.00,WUHU216HW,2013-07-11 00:06:00,
2013-07-10 18:08:00,94.1,32.9,29.74,SSW,203,7.8,8.1,12,0.00,,,0.00,WUHU216HW,2013-07-11 00:08:00,
2013-07-10 18:09:00,94.1,32.9,29.74,South,180,5.8,8.1,12,0.00,,,0.00,WUHU216HW,2013-07-11 00:09:00,
2013-07-10 18:10:00,94.0,32.8,29.74,SSE,158,5.8,8.1,12,0.00,,,0.00,WUHU216HW,2013-07-11 00:10:00,
2013-07-10 18:11:00,93.8,32.6,29.74,South,180,6.7,7.8,12,0.00,,,0.00,WUHU216HW,2013-07-11 00:11:00,
2013-07-10 18:13:00,93.6,34.2,29.74,South,180,6.3,7.8,13,0.00,,,0.00,WUHU216HW,2013-07-11 00:13:00,
2013-07-10 18:14:00,93.6,32.4,29.74,SSW,203,6.3,7.8,12,0.00,,,0.00,WUHU216HW,2013-07-11 00:14:00,
2013-07-10 18:15:00,93.4,32.3,29.74,SW,225,4.7,7.8,12,0.00,,,0.00,WUHU216HW,2013-07-11 00:15:00,
2013-07-10 18:16:00,93.2,32.1,29.75,West,270,7.2,8.3,12,0.00,,,0.00,WUHU216HW,2013-07-11 00:16:00,
2013-07-10 18:17:00,93.2,32.1,29.75,West,270,7.2,8.3,12,0.00,,,0.00,WUHU216HW,2013-07-11 00:17:00,
2013-07-10 18:18:00,92.5,28.1,29.74,WNW,293,24.4,24.4,10,0.00,,,0.00,WUHU216HW,2013-07-11 00:18:00,
2013-07-10 18:19:00,92.2,27.9,29.74,NNW,338,12.1,24.4,10,0.00,,,0.00,WUHU216HW,2013-07-11 00:19:00,
2013-07-10 18:20:00,91.6,29.3,29.74,North,0,2.5,24.4,11,0.00,,,0.00,WUHU216HW,2013-07-11 00:20:00,
2013-07-10 18:22:00,91.4,29.1,29.74,WSW,248,11.4,24.4,11,0.00,,,0.00,WUHU216HW,2013-07-11 00:22:00,
2013-07-10 18:23:00,91.1,28.8,29.74,West,270,26.8,26.8,11,0.00,,,0.00,WUHU216HW,2013-07-11 00:23:00,
2013-07-10 18:24:00,91.1,28.8,29.74,WNW,293,22.6,26.8,11,0.00,,,0.00,WUHU216HW,2013-07-11 00:24:00,
2013-07-10 18:25:00,90.7,28.5,29.74,NNW,338,11.4,26.8,11,0.00,,,0.00,WUHU216HW,2013-07-11 00:25:00,
2013-07-10 18:27:00,90.4,28.3,29.74,NNW,338,9.2,26.8,11,0.00,,,0.00,WUHU216HW,2013-07-11 00:27:00,
2013-07-10 18:28:00,90.4,28.3,29.74,NE,45,4.7,26.8,11,0.00,,,0.00,WUHU216HW,2013-07-11 00:28:00,
2013-07-10 18:29:00,90.4,28.3,29.74,NW,315,3.4,26.8,11,0.00,,,0.00,WUHU216HW,2013-07-11 00:29:00,
2013-07-10 18:30:00,90.5,28.4,29.74,NW,315,8.5,26.8,11,0.00,,,0.00,WUHU216HW,2013-07-11 00:30:00,
2013-07-10 18:32:00,90.7,30.2,29.74,WNW,293,7.6,26.8,12,0.00,,,0.00,WUHU216HW,2013-07-11 00:32:00,
2013-07-10 18:33:00,91.1,30.6,29.74,NNW,338,11.9,22.6,12,0.00,,,0.00,WUHU216HW,2013-07-11 00:33:00,
2013-07-10 18:35:00,91.3,30.7,29.74,WSW,248,19.7,21.5,12,0.00,,,0.00,WUHU216HW,2013-07-11 00:35:00,
2013-07-10 18:37:00,91.3,30.7,29.73,WNW,293,20.4,27.1,12,0.00,,,0.00,WUHU216HW,2013-07-11 00:37:00,
2013-07-10 18:39:00,91.3,29.0,29.73,West,270,20.8,27.1,11,0.00,,,0.00,WUHU216HW,2013-07-11 00:39:00,
2013-07-10 18:40:00,91.4,30.9,29.73,NW,315,12.1,27.1,12,0.00,,,0.00,WUHU216HW,2013-07-11 00:40:00,
2013-07-10 18:42:00,91.6,31.0,29.73,NW,315,11.0,27.1,12,0.00,,,0.00,WUHU216HW,2013-07-11 00:42:00,
2013-07-10 18:44:00,91.6,31.0,29.73,NW,315,7.4,27.1,12,0.00,,,0.00,WUHU216HW,2013-07-11 00:44:00,
2013-07-10 18:45:00,91.8,29.3,29.73,West,270,7.6,27.1,11,0.00,,,0.00,WUHU216HW,2013-07-11 00:45:00,
2013-07-10 18:47:00,91.8,31.2,29.73,WNW,293,5.4,20.8,12,0.00,,,0.00,WUHU216HW,2013-07-11 00:47:00,
2013-07-10 18:48:00,91.8,31.2,29.73,NNW,338,4.3,20.8,12,0.00,,,0.00,WUHU216HW,2013-07-11 00:48:00,
2013-07-10 18:49:00,91.8,31.2,29.73,WNW,293,5.4,16.1,12,0.00,,,0.00,WUHU216HW,2013-07-11 00:49:00,
2013-07-10 18:50:00,91.8,31.2,29.73,WNW,293,8.5,15.2,12,0.00,,,0.00,WUHU216HW,2013-07-11 00:50:00,
2013-07-10 18:51:00,91.8,31.2,29.73,NW,315,8.9,15.2,12,0.00,,,0.00,WUHU216HW,2013-07-11 00:51:00,
2013-07-10 18:52:00,91.6,31.0,29.73,WNW,293,6.0,11.0,12,0.00,,,0.00,WUHU216HW,2013-07-11 00:52:00,
2013-07-10 18:53:00,91.4,30.9,29.73,WNW,293,4.7,9.6,12,0.00,,,0.00,WUHU216HW,2013-07-11 00:53:00,
2013-07-10 18:54:00,91.3,30.7,29.73,WSW,248,13.0,13.0,12,0.00,,,0.00,WUHU216HW,2013-07-11 00:54:00,
2013-07-10 18:55:00,91.3,30.7,29.73,WSW,248,6.3,13.0,12,0.00,,,0.00,WUHU216HW,2013-07-11 00:55:00,
2013-07-10 18:56:00,91.3,30.7,29.73,WSW,248,6.3,13.0,12,0.00,,,0.00,WUHU216HW,2013-07-11 00:56:00,
2013-07-10 18:58:00,91.4,30.9,29.73,WNW,293,8.3,13.0,12,0.00,,,0.00,WUHU216HW,2013-07-11 00:58:00,
2013-07-10 18:59:00,91.3,30.7,29.73,West,270,3.1,13.0,12,0.00,,,0.00,WUHU216HW,2013-07-11 00:59:00,
2013-07-10 19:01:00,91.3,30.7,29.72,West,270,1.6,13.0,12,0.00,,,0.00,WUHU216HW,2013-07-11 01:01:00,
2013-07-10 19:03:00,91.4,32.6,29.72,WSW,248,3.4,13.0,13,0.00,,,0.00,WUHU216HW,2013-07-11 01:03:00,
2013-07-10 19:04:00,91.4,32.6,29.72,WSW,248,3.8,13.0,13,0.00,,,0.00,WUHU216HW,2013-07-11 01:04:00,
2013-07-10 19:06:00,91.4,32.6,29.73,WSW,248,5.1,8.3,13,0.00,,,0.00,WUHU216HW,2013-07-11 01:06:00,
2013-07-10 19:08:00,91.4,34.4,29.73,WSW,248,3.4,8.3,14,0.00,,,0.00,WUHU216HW,2013-07-11 01:08:00,
2013-07-10 19:10:00,91.4,34.4,29.72,West,270,3.4,5.1,14,0.00,,,0.00,WUHU216HW,2013-07-11 01:10:00,
2013-07-10 19:11:00,91.4,36.1,29.72,WSW,248,4.0,5.1,15,0.00,,,0.00,WUHU216HW,2013-07-11 01:11:00,
2013-07-10 19:13:00,91.4,32.6,29.72,West,270,5.4,5.4,13,0.00,,,0.00,WUHU216HW,2013-07-11 01:13:00,
2013-07-10 19:14:00,91.3,32.5,29.72,WSW,248,4.5,5.4,13,0.00,,,0.00,WUHU216HW,2013-07-11 01:14:00,
2013-07-10 19:15:00,91.1,35.8,29.72,West,270,4.7,5.4,15,0.00,,,0.00,WUHU216HW,2013-07-11 01:15:00,
2013-07-10 19:16:00,90.9,33.9,29.72,WSW,248,3.1,5.4,14,0.00,,,0.00,WUHU216HW,2013-07-11 01:16:00,
2013-07-10 19:17:00,90.9,33.9,29.72,WSW,248,2.5,5.4,14,0.00,,,0.00,WUHU216HW,2013-07-11 01:17:00,
2013-07-10 19:18:00,90.9,32.1,29.72,WSW,248,0.7,5.4,13,0.00,,,0.00,WUHU216HW,2013-07-11 01:18:00,
2013-07-10 19:19:00,90.7,35.6,29.72,WSW,248,2.5,5.4,15,0.00,,,0.00,WUHU216HW,2013-07-11 01:19:00,
2013-07-10 19:20:00,90.7,33.8,29.72,West,270,3.4,5.4,14,0.00,,,0.00,WUHU216HW,2013-07-11 01:20:00,
2013-07-10 19:21:00,90.9,35.6,29.72,SW,225,2.2,5.4,15,0.00,,,0.00,WUHU216HW,2013-07-11 01:21:00,
2013-07-10 19:22:00,90.9,35.6,29.72,SW,225,3.4,5.4,15,0.00,,,0.00,WUHU216HW,2013-07-11 01:22:00,
2013-07-10 19:23:00,90.9,35.6,29.72,WSW,248,4.5,5.4,15,0.00,,,0.00,WUHU216HW,2013-07-11 01:23:00,
2013-07-10 19:24:00,90.9,35.6,29.72,WSW,248,4.7,5.4,15,0.00,,,0.00,WUHU216HW,2013-07-11 01:24:00,
2013-07-10 19:26:00,90.7,37.3,29.71,SW,225,4.3,5.4,16,0.00,,,0.00,WUHU216HW,2013-07-11 01:26:00,
2013-07-10 19:27:00,90.7,37.3,29.71,WSW,248,3.4,5.4,16,0.00,,,0.00,WUHU216HW,2013-07-11 01:27:00,
2013-07-10 19:28:00,90.7,37.3,29.72,WSW,248,3.6,5.4,16,0.00,,,0.00,WUHU216HW,2013-07-11 01:28:00,
2013-07-10 19:29:00,90.7,37.3,29.71,SW,225,4.0,5.4,16,0.00,,,0.00,WUHU216HW,2013-07-11 01:29:00,
2013-07-10 19:31:00,90.7,39.0,29.72,WSW,248,4.7,5.4,17,0.00,,,0.00,WUHU216HW,2013-07-11 01:31:00,
2013-07-10 19:32:00,90.4,38.7,29.72,SW,225,4.0,5.4,17,0.00,,,0.00,WUHU216HW,2013-07-11 01:32:00,
2013-07-10 19:33:00,90.4,38.7,29.72,SW,225,3.6,5.4,17,0.00,,,0.00,WUHU216HW,2013-07-11 01:33:00,
2013-07-10 19:34:00,90.0,40.1,29.72,SW,225,4.9,4.9,18,0.00,,,0.00,WUHU216HW,2013-07-11 01:34:00,
2013-07-10 19:36:00,89.8,40.1,29.72,SW,225,5.4,5.4,18,0.00,,,0.00,WUHU216HW,2013-07-11 01:36:00,
2013-07-10 19:38:00,89.5,39.8,29.72,SW,225,6.7,6.9,18,0.00,,,0.00,WUHU216HW,2013-07-11 01:38:00,
2013-07-10 19:40:00,88.9,35.8,29.72,SSE,158,7.2,7.2,16,0.00,,,0.00,WUHU216HW,2013-07-11 01:40:00,
2013-07-10 19:41:00,88.9,35.8,29.72,South,180,7.6,8.5,16,0.00,,,0.00,WUHU216HW,2013-07-11 01:41:00,
2013-07-10 19:42:00,88.9,35.8,29.72,SSE,158,8.7,8.7,16,0.00,,,0.00,WUHU216HW,2013-07-11 01:42:00,
2013-07-10 19:43:00,88.7,35.7,29.72,SSW,203,8.9,9.2,16,0.00,,,0.00,WUHU216HW,2013-07-11 01:43:00,
2013-07-10 19:45:00,88.7,35.7,29.72,SSE,158,10.5,14.1,16,0.00,,,0.00,WUHU216HW,2013-07-11 01:45:00,
2013-07-10 19:47:00,88.7,34.0,29.72,SSW,203,8.5,14.1,15,0.00,,,0.00,WUHU216HW,2013-07-11 01:47:00,
2013-07-10 19:48:00,88.7,35.7,29.72,SW,225,9.4,14.1,16,0.00,,,0.00,WUHU216HW,2013-07-11 01:48:00,
2013-07-10 19:50:00,88.6,35.6,29.72,South,180,8.9,14.1,16,0.00,,,0.00,WUHU216HW,2013-07-11 01:50:00,
2013-07-10 19:52:00,88.6,35.6,29.72,SW,225,8.1,14.1,16,0.00,,,0.00,WUHU216HW,2013-07-11 01:52:00,
2013-07-10 19:53:00,88.4,35.5,29.72,SW,225,14.3,14.3,16,0.00,,,0.00,WUHU216HW,2013-07-11 01:53:00,
2013-07-10 19:54:00,88.4,35.5,29.72,SW,225,11.4,14.3,16,0.00,,,0.00,WUHU216HW,2013-07-11 01:54:00,
2013-07-10 19:55:00,88.2,35.3,29.72,SSE,158,11.6,15.0,16,0.00,,,0.00,WUHU216HW,2013-07-11 01:55:00,
2013-07-10 19:57:00,88.2,33.6,29.72,SW,225,8.9,15.0,15,0.00,,,0.00,WUHU216HW,2013-07-11 01:57:00,
2013-07-10 19:58:00,88.0,35.2,29.72,SW,225,13.0,15.0,16,0.00,,,0.00,WUHU216HW,2013-07-11 01:58:00,
2013-07-10 19:59:00,88.0,35.2,29.72,South,180,13.6,15.0,16,0.00,,,0.00,WUHU216HW,2013-07-11 01:59:00,
2013-07-10 20:00:00,87.8,33.3,29.72,SSW,203,12.1,15.0,15,0.00,,,0.00,WUHU216HW,2013-07-11 02:00:00,
2013-07-10 20:02:00,87.8,33.3,29.72,SSW,203,8.5,15.0,15,0.00,,,0.00,WUHU216HW,2013-07-11 02:02:00,
2013-07-10 20:03:00,87.8,35.0,29.72,SW,225,12.1,15.0,16,0.00,,,0.00,WUHU216HW,2013-07-11 02:03:00,
2013-07-10 20:04:00,87.8,35.0,29.72,SW,225,12.1,15.0,16,0.00,,,0.00,WUHU216HW,2013-07-11 02:04:00,
2013-07-10 20:06:00,87.7,33.1,29.72,SSW,203,7.6,14.5,15,0.00,,,0.00,WUHU216HW,2013-07-11 02:06:00,
2013-07-10 20:08:00,87.5,33.0,29.72,West,270,5.4,14.5,15,0.00,,,0.00,WUHU216HW,2013-07-11 02:08:00,
2013-07-10 20:09:00,87.5,33.0,29.72,SW,225,7.6,14.5,15,0.00,,,0.00,WUHU216HW,2013-07-11 02:09:00,
2013-07-10 20:11:00,87.5,34.8,29.72,SW,225,4.5,12.5,16,0.00,,,0.00,WUHU216HW,2013-07-11 02:11:00,
2013-07-10 20:13:00,87.1,34.4,29.72,SW,225,6.3,12.1,16,0.00,,,0.00,WUHU216HW,2013-07-11 02:13:00,
2013-07-10 20:14:00,87.1,34.4,29.72,SW,225,6.9,12.1,16,0.00,,,0.00,WUHU216HW,2013-07-11 02:14:00,
2013-07-10 20:16:00,86.8,34.1,29.72,WSW,248,7.6,8.9,16,0.00,,,0.00,WUHU216HW,2013-07-11 02:16:00,
2013-07-10 20:18:00,86.6,33.9,29.72,SW,225,6.0,10.5,16,0.00,,,0.00,WUHU216HW,2013-07-11 02:18:00,
2013-07-10 20:19:00,86.4,33.8,29.72,SW,225,6.7,10.5,16,0.00,,,0.00,WUHU216HW,2013-07-11 02:19:00,
2013-07-10 20:20:00,86.4,33.8,29.72,SW,225,6.3,10.5,16,0.00,,,0.00,WUHU216HW,2013-07-11 02:20:00,
2013-07-10 20:21:00,86.2,33.7,29.72,SW,225,6.9,10.5,16,0.00,,,0.00,WUHU216HW,2013-07-11 02:21:00,
2013-07-10 20:23:00,86.0,33.5,29.72,SW,225,7.4,10.5,16,0.00,,,0.00,WUHU216HW,2013-07-11 02:23:00,
2013-07-10 20:24:00,85.9,33.3,29.72,SW,225,6.9,10.5,16,0.00,,,0.00,WUHU216HW,2013-07-11 02:24:00,
2013-07-10 20:25:00,85.9,33.3,29.72,SW,225,6.3,10.5,16,0.00,,,0.00,WUHU216HW,2013-07-11 02:25:00,
2013-07-10 20:26:00,85.9,33.3,29.72,SW,225,4.9,10.5,16,0.00,,,0.00,WUHU216HW,2013-07-11 02:26:00,
2013-07-10 20:28:00,85.9,35.0,29.72,WSW,248,4.5,7.6,17,0.00,,,0.00,WUHU216HW,2013-07-11 02:28:00,
2013-07-10 20:29:00,86.0,35.2,29.72,WSW,248,6.5,7.6,17,0.00,,,0.00,WUHU216HW,2013-07-11 02:29:00,
2013-07-10 20:30:00,86.0,35.2,29.72,WSW,248,6.5,7.6,17,0.00,,,0.00,WUHU216HW,2013-07-11 02:30:00,
2013-07-10 20:31:00,86.2,35.4,29.72,WSW,248,5.1,7.6,17,0.00,,,0.00,WUHU216HW,2013-07-11 02:31:00,
2013-07-10 20:33:00,86.6,35.6,29.72,West,270,7.8,7.8,17,0.00,,,0.00,WUHU216HW,2013-07-11 02:33:00,
2013-07-10 20:35:00,86.6,35.6,29.72,West,270,6.3,7.8,17,0.00,,,0.00,WUHU216HW,2013-07-11 02:35:00,
2013-07-10 20:36:00,86.4,37.3,29.72,West,270,6.3,7.8,18,0.00,,,0.00,WUHU216HW,2013-07-11 02:36:00,
2013-07-10 20:38:00,86.0,36.9,29.72,West,270,7.4,8.1,18,0.00,,,0.00,WUHU216HW,2013-07-11 02:38:00,
2013-07-10 20:40:00,85.7,36.6,29.72,West,270,6.0,8.1,18,0.00,,,0.00,WUHU216HW,2013-07-11 02:40:00,
2013-07-10 20:41:00,85.5,36.5,29.72,West,270,6.3,8.1,18,0.00,,,0.00,WUHU216HW,2013-07-11 02:41:00,
2013-07-10 20:44:00,85.0,37.7,29.72,West,270,6.9,8.1,19,0.00,,,0.00,WUHU216HW,2013-07-11 02:44:00,
2013-07-10 20:46:00,84.6,37.4,29.72,West,270,6.7,8.1,19,0.00,,,0.00,WUHU216HW,2013-07-11 02:46:00,
2013-07-10 20:47:00,84.4,37.4,29.72,West,270,5.8,8.1,19,0.00,,,0.00,WUHU216HW,2013-07-11 02:47:00,
2013-07-10 20:49:00,84.1,39.8,29.71,West,270,4.9,7.2,21,0.00,,,0.00,WUHU216HW,2013-07-11 02:49:00,
2013-07-10 20:51:00,83.9,39.7,29.71,West,270,8.5,8.5,21,0.00,,,0.00,WUHU216HW,2013-07-11 02:51:00,
2013-07-10 20:52:00,83.7,39.5,29.71,West,270,8.5,8.7,21,0.00,,,0.00,WUHU216HW,2013-07-11 02:52:00,
2013-07-10 20:54:00,83.2,39.1,29.71,WSW,248,8.7,9.8,21,0.00,,,0.00,WUHU216HW,2013-07-11 02:54:00,
2013-07-10 20:56:00,82.8,38.8,29.71,West,270,9.6,10.7,21,0.00,,,0.00,WUHU216HW,2013-07-11 02:56:00,
2013-07-10 20:57:00,82.8,38.8,29.71,West,270,11.2,11.2,21,0.00,,,0.00,WUHU216HW,2013-07-11 02:57:00,
2013-07-10 21:00:00,82.4,39.5,29.71,West,270,11.4,12.5,22,0.00,,,0.00,WUHU216HW,2013-07-11 03:00:00,
2013-07-10 21:01:00,82.3,39.4,29.71,West,270,11.2,12.5,22,0.00,,,0.00,WUHU216HW,2013-07-11 03:01:00,
2013-07-10 21:02:00,82.3,39.4,29.71,WSW,248,11.4,12.5,22,0.00,,,0.00,WUHU216HW,2013-07-11 03:02:00,
2013-07-10 21:05:00,81.9,39.1,29.71,West,270,8.3,12.5,22,0.00,,,0.00,WUHU216HW,2013-07-11 03:05:00,
2013-07-10 21:06:00,81.7,37.9,29.71,West,270,9.4,12.5,21,0.00,,,0.00,WUHU216HW,2013-07-11 03:06:00,
2013-07-10 21:07:00,81.7,37.9,29.71,West,270,10.1,12.5,21,0.00,,,0.00,WUHU216HW,2013-07-11 03:07:00,
2013-07-10 21:10:00,81.5,38.8,29.71,West,270,7.2,11.4,22,0.00,,,0.00,WUHU216HW,2013-07-11 03:10:00,
2013-07-10 21:11:00,81.4,38.7,29.71,West,270,8.5,11.4,22,0.00,,,0.00,WUHU216HW,2013-07-11 03:11:00,
2013-07-10 21:12:00,81.4,38.7,29.71,WSW,248,8.5,11.4,22,0.00,,,0.00,WUHU216HW,2013-07-11 03:12:00,
2013-07-10 21:13:00,81.2,38.5,29.71,West,270,8.9,11.4,22,0.00,,,0.00,WUHU216HW,2013-07-11 03:13:00,
2013-07-10 21:15:00,80.8,39.2,29.71,WSW,248,8.7,11.4,23,0.00,,,0.00,WUHU216HW,2013-07-11 03:15:00,
2013-07-10 21:16:00,80.6,38.1,29.71,WSW,248,8.9,11.4,22,0.00,,,0.00,WUHU216HW,2013-07-11 03:16:00,
2013-07-10 21:17:00,80.5,37.9,29.71,West,270,8.5,10.5,22,0.00,,,0.00,WUHU216HW,2013-07-11 03:17:00,
2013-07-10 21:18:00,80.5,37.9,29.71,West,270,8.5,10.5,22,0.00,,,0.00,WUHU216HW,2013-07-11 03:18:00,
2013-07-10 21:20:00,80.3,37.8,29.71,West,270,6.9,10.5,22,0.00,,,0.00,WUHU216HW,2013-07-11 03:20:00,
2013-07-10 21:21:00,80.1,38.6,29.71,West,270,8.5,10.5,23,0.00,,,0.00,WUHU216HW,2013-07-11 03:21:00,
2013-07-10 21:22:00,79.9,38.5,29.71,West,270,4.9,10.5,23,0.00,,,0.00,WUHU216HW,2013-07-11 03:22:00,
2013-07-10 21:23:00,79.9,38.5,29.71,West,270,5.4,10.5,23,0.00,,,0.00,WUHU216HW,2013-07-11 03:23:00,
2013-07-10 21:25:00,79.6,38.2,29.71,West,270,7.8,10.1,23,0.00,,,0.00,WUHU216HW,2013-07-11 03:25:00,
2013-07-10 21:27:00,79.2,37.8,29.70,WNW,293,9.4,9.4,23,0.00,,,0.00,WUHU216HW,2013-07-11 03:27:00,
2013-07-10 21:28:00,79.0,37.7,29.71,West,270,8.5,9.4,23,0.00,,,0.00,WUHU216HW,2013-07-11 03:28:00,
2013-07-10 21:29:00,79.0,37.7,29.71,West,270,9.2,9.4,23,0.00,,,0.00,WUHU216HW,2013-07-11 03:29:00,
2013-07-10 21:30:00,78.8,38.5,29.71,West,270,9.2,10.1,24,0.00,,,0.00,WUHU216HW,2013-07-11 03:30:00,
2013-07-10 21:32:00,78.7,38.4,29.71,West,270,11.6,11.6,24,0.00,,,0.00,WUHU216HW,2013-07-11 03:32:00,
2013-07-10 21:33:00,78.5,38.3,29.71,West,270,10.5,11.6,24,0.00,,,0.00,WUHU216HW,2013-07-11 03:33:00,
2013-07-10 21:34:00,78.5,38.3,29.71,West,270,8.1,11.6,24,0.00,,,0.00,WUHU216HW,2013-07-11 03:34:00,
2013-07-10 21:35:00,78.5,38.3,29.71,West,270,9.6,11.6,24,0.00,,,0.00,WUHU216HW,2013-07-11 03:35:00,
2013-07-10 21:37:00,78.5,38.3,29.71,West,270,11.4,11.6,24,0.00,,,0.00,WUHU216HW,2013-07-11 03:37:00,
2013-07-10 21:38:00,78.3,38.2,29.71,West,270,9.4,11.6,24,0.00,,,0.00,WUHU216HW,2013-07-11 03:38:00,
2013-07-10 21:39:00,78.3,38.2,29.71,West,270,8.7,11.6,24,0.00,,,0.00,WUHU216HW,2013-07-11 03:39:00,
2013-07-10 21:40:00,78.3,38.2,29.70,West,270,7.4,11.6,24,0.00,,,0.00,WUHU216HW,2013-07-11 03:40:00,
2013-07-10 21:42:00,78.1,38.0,29.71,WSW,248,7.6,11.4,24,0.00,,,0.00,WUHU216HW,2013-07-11 03:42:00,
2013-07-10 21:43:00,78.1,38.0,29.71,West,270,9.2,11.4,24,0.00,,,0.00,WUHU216HW,2013-07-11 03:43:00,
2013-07-10 21:44:00,77.9,37.8,29.71,West,270,10.1,11.4,24,0.00,,,0.00,WUHU216HW,2013-07-11 03:44:00,
2013-07-10 21:46:00,77.8,37.7,29.71,West,270,8.9,11.4,24,0.00,,,0.00,WUHU216HW,2013-07-11 03:46:00,
2013-07-10 21:47:00,77.8,37.7,29.70,West,270,9.8,10.5,24,0.00,,,0.00,WUHU216HW,2013-07-11 03:47:00,
2013-07-10 21:48:00,77.8,37.7,29.70,West,270,8.9,10.3,24,0.00,,,0.00,WUHU216HW,2013-07-11 03:48:00,
2013-07-10 21:49:00,77.8,37.7,29.70,West,270,8.3,10.3,24,0.00,,,0.00,WUHU216HW,2013-07-11 03:49:00,
2013-07-10 21:51:00,77.6,37.5,29.70,West,270,7.2,10.3,24,0.00,,,0.00,WUHU216HW,2013-07-11 03:51:00,
2013-07-10 21:52:00,77.6,37.5,29.70,West,270,8.5,10.3,24,0.00,,,0.00,WUHU216HW,2013-07-11 03:52:00,
2013-07-10 21:54:00,77.4,38.4,29.71,WNW,293,8.7,10.3,25,0.00,,,0.00,WUHU216HW,2013-07-11 03:54:00,
2013-07-10 21:55:00,77.4,38.4,29.70,West,270,9.4,10.3,25,0.00,,,0.00,WUHU216HW,2013-07-11 03:55:00,
2013-07-10 21:56:00,77.2,38.4,29.71,WNW,293,9.8,11.0,25,0.00,,,0.00,WUHU216HW,2013-07-11 03:56:00,
2013-07-10 21:57:00,77.2,38.4,29.71,West,270,9.8,11.0,25,0.00,,,0.00,WUHU216HW,2013-07-11 03:57:00,
2013-07-10 21:59:00,77.2,38.4,29.70,West,270,9.2,11.0,25,0.00,,,0.00,WUHU216HW,2013-07-11 03:59:00,
2013-07-10 22:01:00,77.2,38.4,29.71,WSW,248,9.4,11.0,25,0.00,,,0.00,WUHU216HW,2013-07-11 04:01:00,
2013-07-10 22:06:00,77.0,38.2,29.71,West,270,9.2,10.5,25,0.00,,,0.00,WUHU216HW,2013-07-11 04:06:00,
2013-07-10 22:11:00,76.7,37.9,29.71,WSW,248,7.2,10.1,25,0.00,,,0.00,WUHU216HW,2013-07-11 04:11:00,
2013-07-10 22:16:00,76.3,37.5,29.71,WSW,248,6.3,9.4,25,0.00,,,0.00,WUHU216HW,2013-07-11 04:16:00,
2013-07-10 22:17:00,76.3,37.5,29.71,WSW,248,5.6,9.4,25,0.00,,,0.00,WUHU216HW,2013-07-11 04:17:00,
2013-07-10 22:21:00,76.1,37.4,29.71,WSW,248,5.1,9.4,25,0.00,,,0.00,WUHU216HW,2013-07-11 04:21:00,
2013-07-10 22:22:00,76.1,37.4,29.71,WSW,248,5.1,9.4,25,0.00,,,0.00,WUHU216HW,2013-07-11 04:22:00,
2013-07-10 22:26:00,76.0,38.3,29.71,SW,225,4.3,6.3,26,0.00,,,0.00,WUHU216HW,2013-07-11 04:26:00,
2013-07-10 22:27:00,76.0,38.3,29.71,SW,225,4.3,6.3,26,0.00,,,0.00,WUHU216HW,2013-07-11 04:27:00,
2013-07-10 22:31:00,75.4,40.9,29.71,SW,225,4.7,5.6,29,0.00,,,0.00,WUHU216HW,2013-07-11 04:31:00,
2013-07-10 22:32:00,75.4,40.9,29.71,SW,225,4.7,5.6,29,0.00,,,0.00,WUHU216HW,2013-07-11 04:32:00,
2013-07-10 22:33:00,75.2,41.8,29.71,SW,225,4.9,5.6,30,0.00,,,0.00,WUHU216HW,2013-07-11 04:33:00,
2013-07-10 22:37:00,74.9,41.4,29.71,SW,225,4.0,6.5,30,0.00,,,0.00,WUHU216HW,2013-07-11 04:37:00,
2013-07-10 22:38:00,74.7,40.2,29.70,WSW,248,6.3,6.5,29,0.00,,,0.00,WUHU216HW,2013-07-11 04:38:00,
2013-07-10 22:42:00,74.5,40.1,29.70,WSW,248,6.9,7.4,29,0.00,,,0.00,WUHU216HW,2013-07-11 04:42:00,
2013-07-10 22:43:00,74.5,39.1,29.70,WSW,248,8.1,8.1,28,0.00,,,0.00,WUHU216HW,2013-07-11 04:43:00,
2013-07-10 22:47:00,74.5,40.1,29.70,WSW,248,4.9,8.1,29,0.00,,,0.00,WUHU216HW,2013-07-11 04:47:00,
2013-07-10 22:48:00,74.3,40.0,29.70,WSW,248,6.3,8.1,29,0.00,,,0.00,WUHU216HW,2013-07-11 04:48:00,
2013-07-10 22:52:00,74.2,39.8,29.70,WSW,248,6.5,8.1,29,0.00,,,0.00,WUHU216HW,2013-07-11 04:52:00,
2013-07-10 22:53:00,74.2,39.8,29.70,WSW,248,6.9,8.1,29,0.00,,,0.00,WUHU216HW,2013-07-11 04:53:00,
2013-07-10 22:54:00,74.0,39.6,29.70,WSW,248,5.6,7.8,29,0.00,,,0.00,WUHU216HW,2013-07-11 04:54:00,
2013-07-10 22:57:00,73.6,39.3,29.70,West,270,9.2,9.2,29,0.00,,,0.00,WUHU216HW,2013-07-11 04:57:00,
2013-07-10 22:58:00,73.6,39.3,29.70,WSW,248,8.7,9.2,29,0.00,,,0.00,WUHU216HW,2013-07-11 04:58:00,
2013-07-10 22:59:00,73.6,39.3,29.70,WSW,248,6.9,9.2,29,0.00,,,0.00,WUHU216HW,2013-07-11 04:59:00,
2013-07-10 23:02:00,73.6,39.3,29.70,West,270,9.2,9.6,29,0.00,,,0.00,WUHU216HW,2013-07-11 05:02:00,
2013-07-10 23:03:00,73.8,39.4,29.70,WSW,248,9.2,9.6,29,0.00,,,0.00,WUHU216HW,2013-07-11 05:03:00,
2013-07-10 23:04:00,73.8,39.4,29.70,WSW,248,9.2,9.6,29,0.00,,,0.00,WUHU216HW,2013-07-11 05:04:00,
2013-07-10 23:08:00,73.8,39.4,29.70,West,270,7.2,9.6,29,0.00,,,0.00,WUHU216HW,2013-07-11 05:08:00,
2013-07-10 23:09:00,73.6,39.3,29.70,WSW,248,7.6,9.6,29,0.00,,,0.00,WUHU216HW,2013-07-11 05:09:00,
2013-07-10 23:13:00,73.6,39.3,29.70,WSW,248,6.9,9.2,29,0.00,,,0.00,WUHU216HW,2013-07-11 05:13:00,
2013-07-10 23:14:00,73.6,39.3,29.70,West,270,8.3,9.2,29,0.00,,,0.00,WUHU216HW,2013-07-11 05:14:00,
2013-07-10 23:15:00,73.8,39.4,29.69,WSW,248,9.6,9.6,29,0.00,,,0.00,WUHU216HW,2013-07-11 05:15:00,
2013-07-10 23:18:00,73.6,39.3,29.70,West,270,7.8,9.6,29,0.00,,,0.00,WUHU216HW,2013-07-11 05:18:00,
2013-07-10 23:19:00,73.6,39.3,29.70,WSW,248,7.2,9.6,29,0.00,,,0.00,WUHU216HW,2013-07-11 05:19:00,
2013-07-10 23:20:00,73.4,39.2,29.70,WSW,248,7.6,9.6,29,0.00,,,0.00,WUHU216HW,2013-07-11 05:20:00,
2013-07-10 23:23:00,73.4,39.2,29.69,WSW,248,8.7,9.6,29,0.00,,,0.00,WUHU216HW,2013-07-11 05:23:00,
2013-07-10 23:24:00,73.4,39.2,29.69,WSW,248,8.3,9.6,29,0.00,,,0.00,WUHU216HW,2013-07-11 05:24:00,
2013-07-10 23:25:00,73.4,39.2,29.69,West,270,7.4,9.2,29,0.00,,,0.00,WUHU216HW,2013-07-11 05:25:00,
2013-07-10 23:28:00,73.3,39.0,29.69,West,270,7.6,9.2,29,0.00,,,0.00,WUHU216HW,2013-07-11 05:28:00,
2013-07-10 23:29:00,73.3,39.0,29.69,West,270,6.3,9.2,29,0.00,,,0.00,WUHU216HW,2013-07-11 05:29:00,
2013-07-10 23:30:00,73.3,39.0,29.69,WSW,248,6.7,9.2,29,0.00,,,0.00,WUHU216HW,2013-07-11 05:30:00,
2013-07-10 23:33:00,73.1,38.9,29.69,West,270,7.6,9.2,29,0.00,,,0.00,WUHU216HW,2013-07-11 05:33:00,
2013-07-10 23:34:00,73.1,39.9,29.69,WSW,248,8.5,9.2,30,0.00,,,0.00,WUHU216HW,2013-07-11 05:34:00,
2013-07-10 23:35:00,73.1,38.9,29.69,West,270,7.6,9.2,29,0.00,,,0.00,WUHU216HW,2013-07-11 05:35:00,
2013-07-10 23:38:00,72.7,39.6,29.69,West,270,9.2,11.2,30,0.00,,,0.00,WUHU216HW,2013-07-11 05:38:00,
2013-07-10 23:39:00,72.7,39.6,29.69,WSW,248,8.1,11.2,30,0.00,,,0.00,WUHU216HW,2013-07-11 05:39:00,
2013-07-10 23:40:00,72.7,39.6,29.69,West,270,9.2,11.2,30,0.00,,,0.00,WUHU216HW,2013-07-11 05:40:00,
2013-07-10 23:44:00,72.5,39.4,29.69,West,270,5.8,11.2,30,0.00,,,0.00,WUHU216HW,2013-07-11 05:44:00,
2013-07-10 23:45:00,72.5,39.4,29.69,West,270,6.0,11.2,30,0.00,,,0.00,WUHU216HW,2013-07-11 05:45:00,
2013-07-10 23:49:00,72.7,39.6,29.69,West,270,7.6,10.1,30,0.00,,,0.00,WUHU216HW,2013-07-11 05:49:00,
2013-07-10 23:50:00,72.7,39.6,29.69,WSW,248,6.5,10.1,30,0.00,,,0.00,WUHU216HW,2013-07-11 05:50:00,
2013-07-10 23:54:00,72.9,39.7,29.70,WSW,248,8.5,9.6,30,0.00,,,0.00,WUHU216HW,2013-07-11 05:54:00,
2013-07-10 23:55:00,73.1,39.9,29.70,WSW,248,6.7,9.6,30,0.00,,,0.00,WUHU216HW,2013-07-11 05:55:00,
2013-07-10 23:59:00,73.1,39.9,29.70,WSW,248,7.6,8.5,30,0.00,,,0.00,WUHU216HW,2013-07-11 05:59:00,